Time,TemperatureF,DewpointF,PressureIn,WindDirection,WindDirectionDegrees,WindSpeedMPH,WindSpeedGustMPH,Humidity,HourlyPrecipIn,Conditions,Clouds,dailyrainin,SoftwareType,DateUTC
2013-02-02 00:00:00,26.1,9.5,30.35,NNW,341,1.0,1.0,49,0.00,,,0.00,Wunderground v.1.15,2013-02-02 05:00:00,
2013-02-02 00:05:00,26.0,9.0,30.35,NNW,342,0.0,1.0,48,0.00,,,0.00,Wunderground v.1.15,2013-02-02 05:05:00,
2013-02-02 00:06:00,26.0,9.4,30.35,NNW,342,0.0,1.0,49,0.00,,,0.00,Wunderground v.1.15,2013-02-02 05:06:00,
2013-02-02 00:07:00,26.1,10.0,30.35,NNW,341,0.0,1.0,50,0.00,,,0.00,Wunderground v.1.15,2013-02-02 05:07:00,
2013-02-02 00:08:00,26.0,9.4,30.35,NNW,342,0.0,1.0,49,0.00,,,0.00,Wunderground v.1.15,2013-02-02 05:08:00,
2013-02-02 00:12:00,25.8,9.7,30.35,NNW,342,0.0,0.0,50,0.00,,,0.00,Wunderground v.1.15,2013-02-02 05:12:00,
2013-02-02 00:13:00,25.8,9.7,30.35,NNW,342,0.0,0.0,50,0.00,,,0.00,Wunderground v.1.15,2013-02-02 05:13:00,
2013-02-02 00:14:00,25.8,10.1,30.35,NNW,342,0.0,0.0,51,0.00,,,0.00,Wunderground v.1.15,2013-02-02 05:14:00,
2013-02-02 00:15:00,25.8,10.1,30.35,NNW,342,0.0,0.0,51,0.00,,,0.00,Wunderground v.1.15,2013-02-02 05:15:00,
2013-02-02 00:18:00,25.7,10.0,30.35,NNW,341,0.0,1.0,51,0.00,,,0.00,Wunderground v.1.15,2013-02-02 05:18:00,
2013-02-02 00:21:00,25.6,9.5,30.36,NNW,342,0.0,0.0,50,0.00,,,0.00,Wunderground v.1.15,2013-02-02 05:21:00,
2013-02-02 00:22:00,25.6,9.1,30.36,ENE,60,1.0,1.0,49,0.00,,,0.00,Wunderground v.1.15,2013-02-02 05:22:00,
2013-02-02 00:24:00,25.7,9.2,30.35,ENE,67,1.0,1.0,49,0.00,,,0.00,Wunderground v.1.15,2013-02-02 05:24:00,
2013-02-02 00:25:00,25.7,9.2,30.35,ENE,67,1.0,1.0,49,0.00,,,0.00,Wunderground v.1.15,2013-02-02 05:25:00,
2013-02-02 00:28:00,25.8,9.2,30.35,NNE,23,2.0,2.0,49,0.00,,,0.00,Wunderground v.1.15,2013-02-02 05:28:00,
2013-02-02 00:33:00,25.8,9.2,30.34,NNE,20,3.0,3.0,49,0.00,,,0.00,Wunderground v.1.15,2013-02-02 05:33:00,
2013-02-02 00:35:00,25.8,9.2,30.34,NE,34,2.0,3.0,49,0.00,,,0.00,Wunderground v.1.15,2013-02-02 05:35:00,
2013-02-02 00:38:00,25.9,9.3,30.34,NNW,342,2.0,3.0,49,0.00,,,0.00,Wunderground v.1.15,2013-02-02 05:38:00,
2013-02-02 00:39:00,25.9,8.9,30.34,NNE,26,2.0,3.0,48,0.00,,,0.00,Wunderground v.1.15,2013-02-02 05:39:00,
2013-02-02 00:41:00,25.9,8.9,30.34,NE,34,2.0,2.0,48,0.00,,,0.00,Wunderground v.1.15,2013-02-02 05:41:00,
2013-02-02 00:46:00,26.1,8.6,30.34,ENE,72,2.0,2.0,47,0.00,,,0.00,Wunderground v.1.15,2013-02-02 05:46:00,
2013-02-02 00:47:00,26.1,8.6,30.34,ENE,65,2.0,2.0,47,0.00,,,0.00,Wunderground v.1.15,2013-02-02 05:47:00,
2013-02-02 00:51:00,26.2,8.7,30.34,NNW,330,3.0,3.0,47,0.00,,,0.00,Wunderground v.1.15,2013-02-02 05:51:00,
2013-02-02 00:52:00,26.2,8.7,30.34,NNE,23,1.0,3.0,47,0.00,,,0.00,Wunderground v.1.15,2013-02-02 05:52:00,
2013-02-02 00:55:00,26.2,8.7,30.34,North,360,0.0,3.0,47,0.00,,,0.00,Wunderground v.1.15,2013-02-02 05:55:00,
2013-02-02 00:57:00,26.2,8.7,30.34,NE,36,1.0,3.0,47,0.00,,,0.00,Wunderground v.1.15,2013-02-02 05:57:00,
2013-02-02 01:00:00,26.1,9.1,30.34,NE,39,3.0,3.0,48,0.00,,,0.00,Wunderground v.1.15,2013-02-02 06:00:00,
2013-02-02 01:01:00,26.1,8.6,30.34,NNE,23,2.0,3.0,47,0.00,,,0.00,Wunderground v.1.15,2013-02-02 06:01:00,
2013-02-02 01:03:00,26.1,8.6,30.34,North,358,3.0,3.0,47,0.00,,,0.00,Wunderground v.1.15,2013-02-02 06:03:00,
2013-02-02 01:04:00,26.1,8.6,30.34,NNE,23,2.0,3.0,47,0.00,,,0.00,Wunderground v.1.15,2013-02-02 06:04:00,
2013-02-02 01:07:00,26.1,8.6,30.34,NNE,33,1.0,3.0,47,0.00,,,0.00,Wunderground v.1.15,2013-02-02 06:07:00,
2013-02-02 01:09:00,26.0,8.5,30.34,North,358,2.0,3.0,47,0.00,,,0.00,Wunderground v.1.15,2013-02-02 06:09:00,
2013-02-02 01:10:00,26.0,8.0,30.34,East,92,0.0,2.0,46,0.00,,,0.00,Wunderground v.1.15,2013-02-02 06:10:00,
2013-02-02 01:11:00,26.1,8.6,30.34,East,92,0.0,2.0,47,0.00,,,0.00,Wunderground v.1.15,2013-02-02 06:11:00,
2013-02-02 01:13:00,26.0,8.5,30.34,North,352,0.0,2.0,47,0.00,,,0.00,Wunderground v.1.15,2013-02-02 06:13:00,
2013-02-02 01:15:00,26.0,8.5,30.34,NNE,32,2.0,2.0,47,0.00,,,0.00,Wunderground v.1.15,2013-02-02 06:15:00,
2013-02-02 01:18:00,25.9,8.4,30.34,NNE,26,1.0,2.0,47,0.00,,,0.00,Wunderground v.1.15,2013-02-02 06:18:00,
2013-02-02 01:20:00,25.9,8.4,30.35,NNE,25,1.0,1.0,47,0.00,,,0.00,Wunderground v.1.15,2013-02-02 06:20:00,
2013-02-02 01:23:00,25.9,8.4,30.35,NNE,23,0.0,1.0,47,0.00,,,0.00,Wunderground v.1.15,2013-02-02 06:23:00,
2013-02-02 01:24:00,25.9,8.4,30.35,NNE,26,0.0,1.0,47,0.00,,,0.00,Wunderground v.1.15,2013-02-02 06:24:00,
2013-02-02 01:26:00,25.8,8.3,30.35,NNE,26,0.0,1.0,47,0.00,,,0.00,Wunderground v.1.15,2013-02-02 06:26:00,
2013-02-02 01:29:00,25.8,8.3,30.35,North,359,0.0,1.0,47,0.00,,,0.00,Wunderground v.1.15,2013-02-02 06:29:00,
2013-02-02 01:30:00,25.8,8.3,30.35,North,358,0.0,0.0,47,0.00,,,0.00,Wunderground v.1.15,2013-02-02 06:30:00,
2013-02-02 01:32:00,25.7,8.2,30.35,North,359,0.0,0.0,47,0.00,,,0.00,Wunderground v.1.15,2013-02-02 06:32:00,
2013-02-02 01:33:00,25.7,8.2,30.35,North,358,1.0,1.0,47,0.00,,,0.00,Wunderground v.1.15,2013-02-02 06:33:00,
2013-02-02 01:37:00,25.6,8.6,30.34,North,358,1.0,1.0,48,0.00,,,0.00,Wunderground v.1.15,2013-02-02 06:37:00,
2013-02-02 01:38:00,25.6,8.6,30.34,North,358,0.0,1.0,48,0.00,,,0.00,Wunderground v.1.15,2013-02-02 06:38:00,
2013-02-02 01:41:00,25.6,8.6,30.34,North,1,0.0,1.0,48,0.00,,,0.00,Wunderground v.1.15,2013-02-02 06:41:00,
2013-02-02 01:43:00,25.6,8.1,30.34,North,1,1.0,1.0,47,0.00,,,0.00,Wunderground v.1.15,2013-02-02 06:43:00,
2013-02-02 01:44:00,25.6,8.1,30.34,NE,39,1.0,1.0,47,0.00,,,0.00,Wunderground v.1.15,2013-02-02 06:44:00,
2013-02-02 01:48:00,25.5,8.0,30.34,NNE,25,1.0,2.0,47,0.00,,,0.00,Wunderground v.1.15,2013-02-02 06:48:00,
2013-02-02 01:49:00,25.6,8.1,30.34,NNE,23,1.0,2.0,47,0.00,,,0.00,Wunderground v.1.15,2013-02-02 06:49:00,
2013-02-02 01:53:00,25.6,8.1,30.34,NNE,29,1.0,2.0,47,0.00,,,0.00,Wunderground v.1.15,2013-02-02 06:53:00,
2013-02-02 01:54:00,25.6,8.1,30.34,NE,43,2.0,2.0,47,0.00,,,0.00,Wunderground v.1.15,2013-02-02 06:54:00,
2013-02-02 01:59:00,25.6,8.1,30.34,NE,37,0.0,2.0,47,0.00,,,0.00,Wunderground v.1.15,2013-02-02 06:59:00,
2013-02-02 02:00:00,25.6,8.1,30.34,NE,37,0.0,1.0,47,0.00,,,0.00,Wunderground v.1.15,2013-02-02 07:00:00,
2013-02-02 02:01:00,25.6,8.1,30.34,NE,37,0.0,1.0,47,0.00,,,0.00,Wunderground v.1.15,2013-02-02 07:01:00,
2013-02-02 02:04:00,25.5,8.0,30.34,NNE,30,1.0,2.0,47,0.00,,,0.00,Wunderground v.1.15,2013-02-02 07:04:00,
2013-02-02 02:05:00,25.5,8.5,30.34,NNE,30,1.0,2.0,48,0.00,,,0.00,Wunderground v.1.15,2013-02-02 07:05:00,
2013-02-02 02:06:00,25.5,8.5,30.34,NNW,343,0.0,2.0,48,0.00,,,0.00,Wunderground v.1.15,2013-02-02 07:06:00,
2013-02-02 02:09:00,25.5,8.5,30.34,NNW,342,0.0,2.0,48,0.00,,,0.00,Wunderground v.1.15,2013-02-02 07:09:00,
2013-02-02 02:10:00,25.5,8.5,30.34,NNW,342,0.0,1.0,48,0.00,,,0.00,Wunderground v.1.15,2013-02-02 07:10:00,
2013-02-02 02:11:00,25.5,8.0,30.34,NNW,341,0.0,1.0,47,0.00,,,0.00,Wunderground v.1.15,2013-02-02 07:11:00,
2013-02-02 02:12:00,25.5,8.0,30.34,NNW,342,0.0,1.0,47,0.00,,,0.00,Wunderground v.1.15,2013-02-02 07:12:00,
2013-02-02 02:14:00,25.4,7.9,30.35,SSW,211,0.0,1.0,47,0.00,,,0.00,Wunderground v.1.15,2013-02-02 07:14:00,
2013-02-02 02:15:00,25.4,8.4,30.35,SSW,211,0.0,1.0,48,0.00,,,0.00,Wunderground v.1.15,2013-02-02 07:15:00,
2013-02-02 02:16:00,25.4,8.4,30.34,SSW,212,0.0,1.0,48,0.00,,,0.00,Wunderground v.1.15,2013-02-02 07:16:00,
2013-02-02 02:17:00,25.4,8.4,30.34,SSW,211,1.0,1.0,48,0.00,,,0.00,Wunderground v.1.15,2013-02-02 07:17:00,
2013-02-02 02:19:00,25.4,7.9,30.34,East,91,1.0,2.0,47,0.00,,,0.00,Wunderground v.1.15,2013-02-02 07:19:00,
2013-02-02 02:20:00,25.4,7.9,30.34,East,91,1.0,1.0,47,0.00,,,0.00,Wunderground v.1.15,2013-02-02 07:20:00,
2013-02-02 02:21:00,25.4,7.9,30.34,East,91,0.0,1.0,47,0.00,,,0.00,Wunderground v.1.15,2013-02-02 07:21:00,
2013-02-02 02:22:00,25.4,7.9,30.34,East,92,0.0,1.0,47,0.00,,,0.00,Wunderground v.1.15,2013-02-02 07:22:00,
2013-02-02 02:24:00,25.4,8.4,30.34,East,91,0.0,1.0,48,0.00,,,0.00,Wunderground v.1.15,2013-02-02 07:24:00,
2013-02-02 02:25:00,25.3,8.3,30.34,East,92,0.0,1.0,48,0.00,,,0.00,Wunderground v.1.15,2013-02-02 07:25:00,
2013-02-02 02:27:00,25.3,8.3,30.34,East,91,0.0,1.0,48,0.00,,,0.00,Wunderground v.1.15,2013-02-02 07:27:00,
2013-02-02 02:29:00,25.2,8.2,30.35,East,91,0.0,1.0,48,0.00,,,0.00,Wunderground v.1.15,2013-02-02 07:29:00,
2013-02-02 02:30:00,25.2,8.2,30.35,East,91,0.0,0.0,48,0.00,,,0.00,Wunderground v.1.15,2013-02-02 07:30:00,
2013-02-02 02:32:00,25.1,8.1,30.35,East,91,0.0,0.0,48,0.00,,,0.00,Wunderground v.1.15,2013-02-02 07:32:00,
2013-02-02 02:35:00,25.0,8.5,30.35,South,181,0.0,1.0,49,0.00,,,0.00,Wunderground v.1.15,2013-02-02 07:35:00,
2013-02-02 02:36:00,24.9,8.9,30.35,South,181,0.0,1.0,50,0.00,,,0.00,Wunderground v.1.15,2013-02-02 07:36:00,
2013-02-02 02:37:00,24.8,8.3,30.35,South,181,0.0,1.0,49,0.00,,,0.00,Wunderground v.1.15,2013-02-02 07:37:00,
2013-02-02 02:40:00,24.7,8.7,30.35,South,181,0.0,1.0,50,0.00,,,0.00,Wunderground v.1.15,2013-02-02 07:40:00,
2013-02-02 02:41:00,24.6,8.6,30.35,South,181,0.0,0.0,50,0.00,,,0.00,Wunderground v.1.15,2013-02-02 07:41:00,
2013-02-02 02:42:00,24.5,9.4,30.35,South,181,0.0,0.0,52,0.00,,,0.00,Wunderground v.1.15,2013-02-02 07:42:00,
2013-02-02 02:45:00,24.4,8.8,30.35,South,181,0.0,0.0,51,0.00,,,0.00,Wunderground v.1.15,2013-02-02 07:45:00,
2013-02-02 02:46:00,24.3,9.2,30.35,South,181,0.0,0.0,52,0.00,,,0.00,Wunderground v.1.15,2013-02-02 07:46:00,
2013-02-02 02:47:00,24.3,9.2,30.35,South,181,0.0,0.0,52,0.00,,,0.00,Wunderground v.1.15,2013-02-02 07:47:00,
2013-02-02 02:48:00,24.3,9.2,30.35,South,181,0.0,0.0,52,0.00,,,0.00,Wunderground v.1.15,2013-02-02 07:48:00,
2013-02-02 02:50:00,24.3,9.6,30.35,South,181,0.0,0.0,53,0.00,,,0.00,Wunderground v.1.15,2013-02-02 07:50:00,
2013-02-02 02:51:00,24.2,9.5,30.35,South,181,0.0,0.0,53,0.00,,,0.00,Wunderground v.1.15,2013-02-02 07:51:00,
2013-02-02 02:52:00,24.2,9.5,30.35,South,181,0.0,0.0,53,0.00,,,0.00,Wunderground v.1.15,2013-02-02 07:52:00,
2013-02-02 02:53:00,24.2,9.5,30.35,South,181,0.0,0.0,53,0.00,,,0.00,Wunderground v.1.15,2013-02-02 07:53:00,
2013-02-02 02:55:00,24.2,9.5,30.35,South,181,0.0,0.0,53,0.00,,,0.00,Wunderground v.1.15,2013-02-02 07:55:00,
2013-02-02 02:56:00,24.1,9.4,30.35,South,181,0.0,0.0,53,0.00,,,0.00,Wunderground v.1.15,2013-02-02 07:56:00,
2013-02-02 02:57:00,24.1,9.4,30.35,South,181,0.0,0.0,53,0.00,,,0.00,Wunderground v.1.15,2013-02-02 07:57:00,
2013-02-02 02:58:00,24.0,9.3,30.35,South,181,0.0,0.0,53,0.00,,,0.00,Wunderground v.1.15,2013-02-02 07:58:00,
2013-02-02 03:00:00,24.0,9.7,30.35,South,181,0.0,0.0,54,0.00,,,0.00,Wunderground v.1.15,2013-02-02 08:00:00,
2013-02-02 03:01:00,24.0,10.2,30.35,South,181,0.0,0.0,55,0.00,,,0.00,Wunderground v.1.15,2013-02-02 08:01:00,
2013-02-02 03:05:00,23.9,10.5,30.35,South,181,0.0,0.0,56,0.00,,,0.00,Wunderground v.1.15,2013-02-02 08:05:00,
2013-02-02 03:06:00,23.9,10.1,30.35,South,181,0.0,0.0,55,0.00,,,0.00,Wunderground v.1.15,2013-02-02 08:06:00,
2013-02-02 03:11:00,23.8,9.6,30.35,South,181,0.0,0.0,54,0.00,,,0.00,Wunderground v.1.15,2013-02-02 08:11:00,
2013-02-02 03:16:00,23.5,9.3,30.36,South,181,0.0,0.0,54,0.00,,,0.00,Wunderground v.1.15,2013-02-02 08:16:00,
2013-02-02 03:21:00,23.3,10.3,30.35,South,181,0.0,0.0,57,0.00,,,0.00,Wunderground v.1.15,2013-02-02 08:21:00,
2013-02-02 03:26:00,23.2,11.0,30.35,South,181,0.0,0.0,59,0.00,,,0.00,Wunderground v.1.15,2013-02-02 08:26:00,
2013-02-02 03:27:00,23.2,11.0,30.35,South,181,0.0,0.0,59,0.00,,,0.00,Wunderground v.1.15,2013-02-02 08:27:00,
2013-02-02 03:32:00,23.1,11.3,30.35,South,181,0.0,0.0,60,0.00,,,0.00,Wunderground v.1.15,2013-02-02 08:32:00,
2013-02-02 03:37:00,23.1,11.6,30.35,South,181,0.0,0.0,61,0.00,,,0.00,Wunderground v.1.15,2013-02-02 08:37:00,
2013-02-02 03:42:00,22.8,11.0,30.35,South,181,0.0,0.0,60,0.00,,,0.00,Wunderground v.1.15,2013-02-02 08:42:00,
2013-02-02 03:47:00,22.7,11.3,30.35,South,181,0.0,0.0,61,0.00,,,0.00,Wunderground v.1.15,2013-02-02 08:47:00,
2013-02-02 03:52:00,22.5,11.1,30.35,South,181,0.0,0.0,61,0.00,,,0.00,Wunderground v.1.15,2013-02-02 08:52:00,
2013-02-02 03:53:00,22.5,11.1,30.35,South,181,0.0,0.0,61,0.00,,,0.00,Wunderground v.1.15,2013-02-02 08:53:00,
2013-02-02 03:57:00,22.5,11.1,30.36,South,181,0.0,0.0,61,0.00,,,0.00,Wunderground v.1.15,2013-02-02 08:57:00,
2013-02-02 03:58:00,22.5,11.1,30.35,South,181,0.0,0.0,61,0.00,,,0.00,Wunderground v.1.15,2013-02-02 08:58:00,
2013-02-02 04:02:00,22.6,11.2,30.36,South,181,0.0,0.0,61,0.00,,,0.00,Wunderground v.1.15,2013-02-02 09:02:00,
2013-02-02 04:03:00,22.6,11.5,30.36,South,181,0.0,0.0,62,0.00,,,0.00,Wunderground v.1.15,2013-02-02 09:03:00,
2013-02-02 04:04:00,22.6,11.5,30.36,South,181,0.0,0.0,62,0.00,,,0.00,Wunderground v.1.15,2013-02-02 09:04:00,
2013-02-02 04:07:00,22.5,11.4,30.36,South,181,0.0,0.0,62,0.00,,,0.00,Wunderground v.1.15,2013-02-02 09:07:00,
2013-02-02 04:08:00,22.5,11.4,30.36,South,181,0.0,0.0,62,0.00,,,0.00,Wunderground v.1.15,2013-02-02 09:08:00,
2013-02-02 04:09:00,22.4,11.3,30.35,South,181,0.0,0.0,62,0.00,,,0.00,Wunderground v.1.15,2013-02-02 09:09:00,
2013-02-02 04:12:00,22.3,10.9,30.35,South,181,0.0,0.0,61,0.00,,,0.00,Wunderground v.1.15,2013-02-02 09:12:00,
2013-02-02 04:13:00,22.3,11.2,30.35,South,181,0.0,0.0,62,0.00,,,0.00,Wunderground v.1.15,2013-02-02 09:13:00,
2013-02-02 04:14:00,22.4,11.7,30.35,South,181,0.0,0.0,63,0.00,,,0.00,Wunderground v.1.15,2013-02-02 09:14:00,
2013-02-02 04:17:00,22.4,11.7,30.34,South,181,0.0,0.0,63,0.00,,,0.00,Wunderground v.1.15,2013-02-02 09:17:00,
2013-02-02 04:18:00,22.4,11.7,30.34,South,181,0.0,0.0,63,0.00,,,0.00,Wunderground v.1.15,2013-02-02 09:18:00,
2013-02-02 04:19:00,22.5,11.8,30.34,South,180,0.0,0.0,63,0.00,,,0.00,Wunderground v.1.15,2013-02-02 09:19:00,
2013-02-02 04:22:00,22.5,11.4,30.35,South,181,0.0,0.0,62,0.00,,,0.00,Wunderground v.1.15,2013-02-02 09:22:00,
2013-02-02 04:23:00,22.5,11.4,30.35,South,181,0.0,0.0,62,0.00,,,0.00,Wunderground v.1.15,2013-02-02 09:23:00,
2013-02-02 04:24:00,22.5,11.8,30.35,South,181,0.0,0.0,63,0.00,,,0.00,Wunderground v.1.15,2013-02-02 09:24:00,
2013-02-02 04:27:00,22.5,11.8,30.35,South,181,0.0,0.0,63,0.00,,,0.00,Wunderground v.1.15,2013-02-02 09:27:00,
2013-02-02 04:28:00,22.4,11.7,30.35,South,181,0.0,0.0,63,0.00,,,0.00,Wunderground v.1.15,2013-02-02 09:28:00,
2013-02-02 04:30:00,22.3,12.0,30.35,South,181,0.0,0.0,64,0.00,,,0.00,Wunderground v.1.15,2013-02-02 09:30:00,
2013-02-02 04:32:00,22.2,11.5,30.35,South,181,0.0,0.0,63,0.00,,,0.00,Wunderground v.1.15,2013-02-02 09:32:00,
2013-02-02 04:33:00,22.2,11.5,30.35,South,181,0.0,0.0,63,0.00,,,0.00,Wunderground v.1.15,2013-02-02 09:33:00,
2013-02-02 04:35:00,22.1,11.8,30.35,South,181,0.0,0.0,64,0.00,,,0.00,Wunderground v.1.15,2013-02-02 09:35:00,
2013-02-02 04:37:00,22.1,11.8,30.35,South,181,0.0,0.0,64,0.00,,,0.00,Wunderground v.1.15,2013-02-02 09:37:00,
2013-02-02 04:38:00,22.1,11.8,30.35,South,181,0.0,0.0,64,0.00,,,0.00,Wunderground v.1.15,2013-02-02 09:38:00,
2013-02-02 04:39:00,22.0,11.7,30.35,South,181,0.0,0.0,64,0.00,,,0.00,Wunderground v.1.15,2013-02-02 09:39:00,
2013-02-02 04:40:00,22.0,11.3,30.35,South,181,0.0,0.0,63,0.00,,,0.00,Wunderground v.1.15,2013-02-02 09:40:00,
2013-02-02 04:43:00,21.9,11.9,30.35,South,181,0.0,0.0,65,0.00,,,0.00,Wunderground v.1.15,2013-02-02 09:43:00,
2013-02-02 04:44:00,21.8,11.8,30.35,South,181,0.0,0.0,65,0.00,,,0.00,Wunderground v.1.15,2013-02-02 09:44:00,
2013-02-02 04:45:00,21.7,11.7,30.35,South,181,0.0,0.0,65,0.00,,,0.00,Wunderground v.1.15,2013-02-02 09:45:00,
2013-02-02 04:48:00,21.7,12.1,30.35,South,181,0.0,0.0,66,0.00,,,0.00,Wunderground v.1.15,2013-02-02 09:48:00,
2013-02-02 04:49:00,21.7,12.1,30.35,South,180,0.0,0.0,66,0.00,,,0.00,Wunderground v.1.15,2013-02-02 09:49:00,
2013-02-02 04:50:00,21.7,12.1,30.35,South,181,0.0,0.0,66,0.00,,,0.00,Wunderground v.1.15,2013-02-02 09:50:00,
2013-02-02 04:53:00,21.6,12.0,30.35,South,181,0.0,0.0,66,0.00,,,0.00,Wunderground v.1.15,2013-02-02 09:53:00,
2013-02-02 04:54:00,21.5,11.9,30.35,South,181,0.0,0.0,66,0.00,,,0.00,Wunderground v.1.15,2013-02-02 09:54:00,
2013-02-02 04:55:00,21.5,11.9,30.35,South,181,0.0,0.0,66,0.00,,,0.00,Wunderground v.1.15,2013-02-02 09:55:00,
2013-02-02 04:58:00,21.3,12.0,30.35,South,181,0.0,0.0,67,0.00,,,0.00,Wunderground v.1.15,2013-02-02 09:58:00,
2013-02-02 04:59:00,21.2,11.9,30.35,South,181,0.0,0.0,67,0.00,,,0.00,Wunderground v.1.15,2013-02-02 09:59:00,
2013-02-02 05:00:00,21.1,12.2,30.35,South,181,0.0,0.0,68,0.00,,,0.00,Wunderground v.1.15,2013-02-02 10:00:00,
2013-02-02 05:03:00,20.9,12.3,30.35,South,181,0.0,0.0,69,0.00,,,0.00,Wunderground v.1.15,2013-02-02 10:03:00,
2013-02-02 05:04:00,20.9,12.3,30.35,South,181,0.0,0.0,69,0.00,,,0.00,Wunderground v.1.15,2013-02-02 10:04:00,
2013-02-02 05:05:00,20.9,12.3,30.35,South,181,0.0,0.0,69,0.00,,,0.00,Wunderground v.1.15,2013-02-02 10:05:00,
2013-02-02 05:08:00,20.8,12.2,30.35,South,181,0.0,0.0,69,0.00,,,0.00,Wunderground v.1.15,2013-02-02 10:08:00,
2013-02-02 05:09:00,20.8,12.2,30.35,South,181,0.0,0.0,69,0.00,,,0.00,Wunderground v.1.15,2013-02-02 10:09:00,
2013-02-02 05:11:00,20.8,12.2,30.36,South,181,0.0,0.0,69,0.00,,,0.00,Wunderground v.1.15,2013-02-02 10:11:00,
2013-02-02 05:13:00,20.7,11.8,30.35,South,181,0.0,0.0,68,0.00,,,0.00,Wunderground v.1.15,2013-02-02 10:13:00,
2013-02-02 05:14:00,20.6,11.7,30.35,South,181,0.0,0.0,68,0.00,,,0.00,Wunderground v.1.15,2013-02-02 10:14:00,
2013-02-02 05:16:00,20.6,11.7,30.35,South,181,0.0,0.0,68,0.00,,,0.00,Wunderground v.1.15,2013-02-02 10:16:00,
2013-02-02 05:18:00,20.5,11.9,30.35,South,181,0.0,0.0,69,0.00,,,0.00,Wunderground v.1.15,2013-02-02 10:18:00,
2013-02-02 05:19:00,20.5,11.9,30.35,South,181,0.0,0.0,69,0.00,,,0.00,Wunderground v.1.15,2013-02-02 10:19:00,
2013-02-02 05:21:00,20.4,11.8,30.35,South,181,0.0,0.0,69,0.00,,,0.00,Wunderground v.1.15,2013-02-02 10:21:00,
2013-02-02 05:24:00,20.4,12.5,30.35,South,181,0.0,0.0,71,0.00,,,0.00,Wunderground v.1.15,2013-02-02 10:24:00,
2013-02-02 05:26:00,20.4,12.8,30.35,South,181,0.0,0.0,72,0.00,,,0.00,Wunderground v.1.15,2013-02-02 10:26:00,
2013-02-02 05:29:00,20.3,12.4,30.35,South,181,0.0,0.0,71,0.00,,,0.00,Wunderground v.1.15,2013-02-02 10:29:00,
2013-02-02 05:31:00,20.2,12.3,30.35,South,181,0.0,0.0,71,0.00,,,0.00,Wunderground v.1.15,2013-02-02 10:31:00,
2013-02-02 05:32:00,20.2,12.3,30.35,South,181,0.0,0.0,71,0.00,,,0.00,Wunderground v.1.15,2013-02-02 10:32:00,
2013-02-02 05:34:00,20.1,12.5,30.35,South,181,0.0,0.0,72,0.00,,,0.00,Wunderground v.1.15,2013-02-02 10:34:00,
2013-02-02 05:36:00,20.0,12.7,30.34,South,181,0.0,0.0,73,0.00,,,0.00,Wunderground v.1.15,2013-02-02 10:36:00,
2013-02-02 05:38:00,20.0,13.0,30.34,South,181,0.0,0.0,74,0.00,,,0.00,Wunderground v.1.15,2013-02-02 10:38:00,
2013-02-02 05:39:00,20.0,13.0,30.34,South,181,0.0,0.0,74,0.00,,,0.00,Wunderground v.1.15,2013-02-02 10:39:00,
2013-02-02 05:41:00,20.0,13.0,30.34,South,181,0.0,0.0,74,0.00,,,0.00,Wunderground v.1.15,2013-02-02 10:41:00,
2013-02-02 05:43:00,20.0,13.0,30.34,South,180,0.0,0.0,74,0.00,,,0.00,Wunderground v.1.15,2013-02-02 10:43:00,
2013-02-02 05:44:00,20.0,13.0,30.35,South,181,0.0,0.0,74,0.00,,,0.00,Wunderground v.1.15,2013-02-02 10:44:00,
2013-02-02 05:45:00,20.0,13.0,30.35,South,181,0.0,0.0,74,0.00,,,0.00,Wunderground v.1.15,2013-02-02 10:45:00,
2013-02-02 05:46:00,19.9,12.9,30.35,South,181,0.0,0.0,74,0.00,,,0.00,Wunderground v.1.15,2013-02-02 10:46:00,
2013-02-02 05:48:00,19.8,12.8,30.35,South,181,0.0,0.0,74,0.00,,,0.00,Wunderground v.1.15,2013-02-02 10:48:00,
2013-02-02 05:49:00,19.8,12.8,30.35,South,181,0.0,0.0,74,0.00,,,0.00,Wunderground v.1.15,2013-02-02 10:49:00,
2013-02-02 05:50:00,19.8,13.2,30.35,South,181,0.0,0.0,75,0.00,,,0.00,Wunderground v.1.15,2013-02-02 10:50:00,
2013-02-02 05:51:00,19.8,13.2,30.35,South,181,0.0,0.0,75,0.00,,,0.00,Wunderground v.1.15,2013-02-02 10:51:00,
2013-02-02 05:53:00,19.7,13.1,30.35,South,181,0.0,0.0,75,0.00,,,0.00,Wunderground v.1.15,2013-02-02 10:53:00,
2013-02-02 05:54:00,19.7,13.1,30.35,South,181,0.0,0.0,75,0.00,,,0.00,Wunderground v.1.15,2013-02-02 10:54:00,
2013-02-02 05:55:00,19.7,13.1,30.35,South,181,0.0,0.0,75,0.00,,,0.00,Wunderground v.1.15,2013-02-02 10:55:00,
2013-02-02 05:56:00,19.6,13.0,30.35,South,181,0.0,0.0,75,0.00,,,0.00,Wunderground v.1.15,2013-02-02 10:56:00,
2013-02-02 05:58:00,19.6,13.3,30.35,South,181,0.0,0.0,76,0.00,,,0.00,Wunderground v.1.15,2013-02-02 10:58:00,
2013-02-02 06:00:00,19.5,13.2,30.35,South,181,0.0,0.0,76,0.00,,,0.00,Wunderground v.1.15,2013-02-02 11:00:00,
2013-02-02 06:02:00,19.5,13.2,30.35,South,181,0.0,0.0,76,0.00,,,0.00,Wunderground v.1.15,2013-02-02 11:02:00,
2013-02-02 06:03:00,19.6,13.3,30.35,South,181,0.0,0.0,76,0.00,,,0.00,Wunderground v.1.15,2013-02-02 11:03:00,
2013-02-02 06:05:00,19.6,13.3,30.35,South,181,0.0,0.0,76,0.00,,,0.00,Wunderground v.1.15,2013-02-02 11:05:00,
2013-02-02 06:07:00,19.6,13.3,30.35,South,181,0.0,0.0,76,0.00,,,0.00,Wunderground v.1.15,2013-02-02 11:07:00,
2013-02-02 06:08:00,19.7,13.4,30.35,South,181,0.0,0.0,76,0.00,,,0.00,Wunderground v.1.15,2013-02-02 11:08:00,
2013-02-02 06:10:00,19.7,13.4,30.35,South,181,0.0,0.0,76,0.00,,,0.00,Wunderground v.1.15,2013-02-02 11:10:00,
2013-02-02 06:12:00,19.7,13.4,30.35,South,181,0.0,0.0,76,0.00,,,0.00,Wunderground v.1.15,2013-02-02 11:12:00,
2013-02-02 06:13:00,19.8,13.5,30.35,South,181,0.0,0.0,76,0.00,,,0.00,Wunderground v.1.15,2013-02-02 11:13:00,
2013-02-02 06:15:00,19.8,13.5,30.35,South,181,0.0,0.0,76,0.00,,,0.00,Wunderground v.1.15,2013-02-02 11:15:00,
2013-02-02 06:16:00,19.8,13.5,30.35,South,181,0.0,0.0,76,0.00,,,0.00,Wunderground v.1.15,2013-02-02 11:16:00,
2013-02-02 06:17:00,19.8,13.5,30.35,South,181,0.0,0.0,76,0.00,,,0.00,Wunderground v.1.15,2013-02-02 11:17:00,
2013-02-02 06:18:00,19.7,13.4,30.35,South,181,0.0,0.0,76,0.00,,,0.00,Wunderground v.1.15,2013-02-02 11:18:00,
2013-02-02 06:20:00,19.7,13.4,30.35,South,181,0.0,0.0,76,0.00,,,0.00,Wunderground v.1.15,2013-02-02 11:20:00,
2013-02-02 06:21:00,19.7,13.4,30.35,South,181,0.0,0.0,76,0.00,,,0.00,Wunderground v.1.15,2013-02-02 11:21:00,
2013-02-02 06:22:00,19.7,13.4,30.35,South,181,0.0,0.0,76,0.00,,,0.00,Wunderground v.1.15,2013-02-02 11:22:00,
2013-02-02 06:24:00,19.7,13.4,30.35,South,181,0.0,0.0,76,0.00,,,0.00,Wunderground v.1.15,2013-02-02 11:24:00,
2013-02-02 06:25:00,19.7,13.4,30.36,South,181,0.0,0.0,76,0.00,,,0.00,Wunderground v.1.15,2013-02-02 11:25:00,
2013-02-02 06:26:00,19.7,13.4,30.36,South,181,0.0,0.0,76,0.00,,,0.00,Wunderground v.1.15,2013-02-02 11:26:00,
2013-02-02 06:27:00,19.7,13.4,30.36,South,181,0.0,0.0,76,0.00,,,0.00,Wunderground v.1.15,2013-02-02 11:27:00,
2013-02-02 06:29:00,19.6,13.3,30.36,South,181,0.0,0.0,76,0.00,,,0.00,Wunderground v.1.15,2013-02-02 11:29:00,
2013-02-02 06:30:00,19.6,13.3,30.36,South,181,0.0,0.0,76,0.00,,,0.00,Wunderground v.1.15,2013-02-02 11:30:00,
2013-02-02 06:31:00,19.6,13.6,30.36,South,181,0.0,0.0,77,0.00,,,0.00,Wunderground v.1.15,2013-02-02 11:31:00,
2013-02-02 06:33:00,19.6,13.6,30.36,South,181,0.0,0.0,77,0.00,,,0.00,Wunderground v.1.15,2013-02-02 11:33:00,
2013-02-02 06:34:00,19.6,13.6,30.36,South,181,0.0,0.0,77,0.00,,,0.00,Wunderground v.1.15,2013-02-02 11:34:00,
2013-02-02 06:36:00,19.6,13.6,30.36,South,181,0.0,0.0,77,0.00,,,0.00,Wunderground v.1.15,2013-02-02 11:36:00,
2013-02-02 06:38:00,19.6,13.6,30.36,South,181,0.0,0.0,77,0.00,,,0.00,Wunderground v.1.15,2013-02-02 11:38:00,
2013-02-02 06:39:00,19.6,13.6,30.36,South,181,0.0,0.0,77,0.00,,,0.00,Wunderground v.1.15,2013-02-02 11:39:00,
2013-02-02 06:41:00,19.5,13.5,30.36,South,181,0.0,0.0,77,0.00,,,0.00,Wunderground v.1.15,2013-02-02 11:41:00,
2013-02-02 06:43:00,19.5,13.5,30.36,South,181,0.0,0.0,77,0.00,,,0.00,Wunderground v.1.15,2013-02-02 11:43:00,
2013-02-02 06:44:00,19.5,13.5,30.36,South,181,0.0,0.0,77,0.00,,,0.00,Wunderground v.1.15,2013-02-02 11:44:00,
2013-02-02 06:46:00,19.5,13.5,30.37,South,181,0.0,0.0,77,0.00,,,0.00,Wunderground v.1.15,2013-02-02 11:46:00,
2013-02-02 06:48:00,19.4,13.1,30.36,South,181,0.0,0.0,76,0.00,,,0.00,Wunderground v.1.15,2013-02-02 11:48:00,
2013-02-02 06:49:00,19.4,13.1,30.37,South,181,0.0,0.0,76,0.00,,,0.00,Wunderground v.1.15,2013-02-02 11:49:00,
2013-02-02 06:51:00,19.3,13.0,30.36,South,181,0.0,0.0,76,0.00,,,0.00,Wunderground v.1.15,2013-02-02 11:51:00,
2013-02-02 06:53:00,19.2,12.9,30.36,South,181,0.0,0.0,76,0.00,,,0.00,Wunderground v.1.15,2013-02-02 11:53:00,
2013-02-02 06:54:00,19.2,13.2,30.36,South,181,0.0,0.0,77,0.00,,,0.00,Wunderground v.1.15,2013-02-02 11:54:00,
2013-02-02 06:56:00,19.2,13.2,30.36,South,181,0.0,0.0,77,0.00,,,0.00,Wunderground v.1.15,2013-02-02 11:56:00,
2013-02-02 06:57:00,19.2,13.2,30.36,South,181,0.0,0.0,77,0.00,,,0.00,Wunderground v.1.15,2013-02-02 11:57:00,
2013-02-02 06:58:00,19.2,13.2,30.36,South,181,0.0,0.0,77,0.00,,,0.00,Wunderground v.1.15,2013-02-02 11:58:00,
2013-02-02 07:00:00,19.2,13.2,30.36,South,181,0.0,0.0,77,0.00,,,0.00,Wunderground v.1.15,2013-02-02 12:00:00,
2013-02-02 07:02:00,19.2,13.2,30.36,South,181,0.0,0.0,77,0.00,,,0.00,Wunderground v.1.15,2013-02-02 12:02:00,
2013-02-02 07:03:00,19.2,13.2,30.37,South,181,0.0,0.0,77,0.00,,,0.00,Wunderground v.1.15,2013-02-02 12:03:00,
2013-02-02 07:05:00,19.2,13.2,30.37,South,181,0.0,0.0,77,0.00,,,0.00,Wunderground v.1.15,2013-02-02 12:05:00,
2013-02-02 07:07:00,19.2,13.2,30.37,South,181,0.0,0.0,77,0.00,,,0.00,Wunderground v.1.15,2013-02-02 12:07:00,
2013-02-02 07:08:00,19.2,13.2,30.37,South,181,0.0,0.0,77,0.00,,,0.00,Wunderground v.1.15,2013-02-02 12:08:00,
2013-02-02 07:10:00,19.2,13.2,30.37,South,181,0.0,0.0,77,0.00,,,0.00,Wunderground v.1.15,2013-02-02 12:10:00,
2013-02-02 07:12:00,19.2,13.2,30.37,South,181,0.0,0.0,77,0.00,,,0.00,Wunderground v.1.15,2013-02-02 12:12:00,
2013-02-02 07:13:00,19.1,13.1,30.37,South,181,0.0,0.0,77,0.00,,,0.00,Wunderground v.1.15,2013-02-02 12:13:00,
2013-02-02 07:15:00,19.1,13.4,30.37,South,181,0.0,0.0,78,0.00,,,0.00,Wunderground v.1.15,2013-02-02 12:15:00,
2013-02-02 07:17:00,18.9,13.2,30.37,South,181,0.0,0.0,78,0.00,,,0.00,Wunderground v.1.15,2013-02-02 12:17:00,
2013-02-02 07:18:00,18.9,13.2,30.37,South,181,0.0,0.0,78,0.00,,,0.00,Wunderground v.1.15,2013-02-02 12:18:00,
2013-02-02 07:20:00,18.8,13.1,30.37,South,181,0.0,0.0,78,0.00,,,0.00,Wunderground v.1.15,2013-02-02 12:20:00,
2013-02-02 07:22:00,18.8,13.4,30.37,South,181,0.0,0.0,79,0.00,,,0.00,Wunderground v.1.15,2013-02-02 12:22:00,
2013-02-02 07:23:00,18.8,13.4,30.37,South,181,0.0,0.0,79,0.00,,,0.00,Wunderground v.1.15,2013-02-02 12:23:00,
2013-02-02 07:25:00,18.8,13.4,30.37,South,181,0.0,0.0,79,0.00,,,0.00,Wunderground v.1.15,2013-02-02 12:25:00,
2013-02-02 07:27:00,18.9,13.5,30.37,South,181,0.0,0.0,79,0.00,,,0.00,Wunderground v.1.15,2013-02-02 12:27:00,
2013-02-02 07:28:00,18.9,13.5,30.37,South,181,0.0,0.0,79,0.00,,,0.00,Wunderground v.1.15,2013-02-02 12:28:00,
2013-02-02 07:29:00,18.9,13.5,30.37,South,181,0.0,0.0,79,0.00,,,0.00,Wunderground v.1.15,2013-02-02 12:29:00,
2013-02-02 07:31:00,18.9,13.7,30.37,South,181,0.0,0.0,80,0.00,,,0.00,Wunderground v.1.15,2013-02-02 12:31:00,
2013-02-02 07:32:00,19.0,13.8,30.36,South,181,0.0,0.0,80,0.00,,,0.00,Wunderground v.1.15,2013-02-02 12:32:00,
2013-02-02 07:33:00,19.0,13.8,30.36,South,181,0.0,0.0,80,0.00,,,0.00,Wunderground v.1.15,2013-02-02 12:33:00,
2013-02-02 07:34:00,19.0,13.8,30.37,South,181,0.0,0.0,80,0.00,,,0.00,Wunderground v.1.15,2013-02-02 12:34:00,
2013-02-02 07:36:00,19.1,13.9,30.36,West,281,0.0,0.0,80,0.00,,,0.00,Wunderground v.1.15,2013-02-02 12:36:00,
2013-02-02 07:37:00,19.0,13.8,30.37,North,5,0.0,0.0,80,0.00,,,0.00,Wunderground v.1.15,2013-02-02 12:37:00,
2013-02-02 07:38:00,19.1,13.9,30.37,North,5,0.0,0.0,80,0.00,,,0.00,Wunderground v.1.15,2013-02-02 12:38:00,
2013-02-02 07:39:00,19.1,13.9,30.37,North,5,0.0,0.0,80,0.00,,,0.00,Wunderground v.1.15,2013-02-02 12:39:00,
2013-02-02 07:41:00,19.0,13.8,30.37,North,5,0.0,0.0,80,0.00,,,0.00,Wunderground v.1.15,2013-02-02 12:41:00,
2013-02-02 07:43:00,19.1,13.9,30.37,North,5,0.0,0.0,80,0.00,,,0.00,Wunderground v.1.15,2013-02-02 12:43:00,
2013-02-02 07:44:00,19.1,13.9,30.37,North,5,0.0,0.0,80,0.00,,,0.00,Wunderground v.1.15,2013-02-02 12:44:00,
2013-02-02 07:46:00,19.1,13.9,30.37,North,5,0.0,0.0,80,0.00,,,0.00,Wunderground v.1.15,2013-02-02 12:46:00,
2013-02-02 07:48:00,19.2,14.0,30.37,North,5,0.0,0.0,80,0.00,,,0.00,Wunderground v.1.15,2013-02-02 12:48:00,
2013-02-02 07:49:00,19.2,14.0,30.37,North,5,0.0,0.0,80,0.00,,,0.00,Wunderground v.1.15,2013-02-02 12:49:00,
2013-02-02 07:51:00,19.3,14.1,30.37,North,5,0.0,0.0,80,0.00,,,0.00,Wunderground v.1.15,2013-02-02 12:51:00,
2013-02-02 07:53:00,19.3,14.4,30.37,North,5,0.0,0.0,81,0.00,,,0.00,Wunderground v.1.15,2013-02-02 12:53:00,
2013-02-02 07:54:00,19.3,14.4,30.37,North,5,0.0,0.0,81,0.00,,,0.00,Wunderground v.1.15,2013-02-02 12:54:00,
2013-02-02 07:55:00,19.4,14.5,30.37,North,5,0.0,0.0,81,0.00,,,0.00,Wunderground v.1.15,2013-02-02 12:55:00,
2013-02-02 07:56:00,19.4,14.2,30.37,North,5,0.0,0.0,80,0.00,,,0.00,Wunderground v.1.15,2013-02-02 12:56:00,
2013-02-02 07:58:00,19.4,14.2,30.37,North,5,0.0,0.0,80,0.00,,,0.00,Wunderground v.1.15,2013-02-02 12:58:00,
2013-02-02 07:59:00,19.4,14.5,30.37,North,5,0.0,0.0,81,0.00,,,0.00,Wunderground v.1.15,2013-02-02 12:59:00,
2013-02-02 08:00:00,19.4,14.5,30.37,North,5,0.0,0.0,81,0.00,,,0.00,Wunderground v.1.15,2013-02-02 13:00:00,
2013-02-02 08:02:00,19.4,14.5,30.37,North,5,0.0,0.0,81,0.00,,,0.00,Wunderground v.1.15,2013-02-02 13:02:00,
2013-02-02 08:03:00,19.4,14.5,30.38,North,5,0.0,0.0,81,0.00,,,0.00,Wunderground v.1.15,2013-02-02 13:03:00,
2013-02-02 08:04:00,19.4,14.5,30.38,North,5,0.0,0.0,81,0.00,,,0.00,Wunderground v.1.15,2013-02-02 13:04:00,
2013-02-02 08:05:00,19.5,14.6,30.37,North,5,0.0,0.0,81,0.00,,,0.00,Wunderground v.1.15,2013-02-02 13:05:00,
2013-02-02 08:07:00,19.6,14.7,30.37,North,5,0.0,0.0,81,0.00,,,0.00,Wunderground v.1.15,2013-02-02 13:07:00,
2013-02-02 08:09:00,19.6,14.7,30.38,North,5,0.0,0.0,81,0.00,,,0.00,Wunderground v.1.15,2013-02-02 13:09:00,
2013-02-02 08:10:00,19.7,15.1,30.38,North,5,0.0,0.0,82,0.00,,,0.00,Wunderground v.1.15,2013-02-02 13:10:00,
2013-02-02 08:12:00,19.9,15.6,30.37,North,5,0.0,0.0,83,0.00,,,0.00,Wunderground v.1.15,2013-02-02 13:12:00,
2013-02-02 08:14:00,20.0,15.4,30.37,North,5,0.0,0.0,82,0.00,,,0.00,Wunderground v.1.15,2013-02-02 13:14:00,
2013-02-02 08:15:00,20.2,15.6,30.37,North,5,0.0,0.0,82,0.00,,,0.00,Wunderground v.1.15,2013-02-02 13:15:00,
2013-02-02 08:18:00,20.4,14.9,30.37,North,5,0.0,1.0,79,0.00,,,0.00,Wunderground v.1.15,2013-02-02 13:18:00,
2013-02-02 08:19:00,20.5,14.7,30.37,North,5,0.0,1.0,78,0.00,,,0.00,Wunderground v.1.15,2013-02-02 13:19:00,
2013-02-02 08:20:00,20.8,14.7,30.37,North,5,0.0,0.0,77,0.00,,,0.00,Wunderground v.1.15,2013-02-02 13:20:00,
2013-02-02 08:23:00,21.1,14.7,30.38,North,5,0.0,1.0,76,0.00,,,0.00,Wunderground v.1.15,2013-02-02 13:23:00,
2013-02-02 08:24:00,21.2,14.8,30.38,North,5,1.0,1.0,76,0.00,,,0.00,Wunderground v.1.15,2013-02-02 13:24:00,
2013-02-02 08:25:00,21.5,14.5,30.38,SSW,198,1.0,2.0,74,0.00,,,0.00,Wunderground v.1.15,2013-02-02 13:25:00,
2013-02-02 08:28:00,21.9,14.6,30.38,SSW,198,0.0,2.0,73,0.00,,,0.00,Wunderground v.1.15,2013-02-02 13:28:00,
2013-02-02 08:29:00,22.0,14.7,30.38,SSW,198,0.0,2.0,73,0.00,,,0.00,Wunderground v.1.15,2013-02-02 13:29:00,
2013-02-02 08:31:00,22.3,14.3,30.38,SSW,198,1.0,2.0,71,0.00,,,0.00,Wunderground v.1.15,2013-02-02 13:31:00,
2013-02-02 08:33:00,22.6,13.3,30.38,SW,214,2.0,3.0,67,0.00,,,0.00,Wunderground v.1.15,2013-02-02 13:33:00,
2013-02-02 08:34:00,22.8,13.1,30.38,SSW,212,1.0,3.0,66,0.00,,,0.00,Wunderground v.1.15,2013-02-02 13:34:00,
2013-02-02 08:36:00,23.1,13.1,30.38,SSW,210,2.0,3.0,65,0.00,,,0.00,Wunderground v.1.15,2013-02-02 13:36:00,
2013-02-02 08:38:00,23.3,12.6,30.38,SSW,210,1.0,3.0,63,0.00,,,0.00,Wunderground v.1.15,2013-02-02 13:38:00,
2013-02-02 08:39:00,23.4,12.6,30.38,SW,218,0.0,3.0,63,0.00,,,0.00,Wunderground v.1.15,2013-02-02 13:39:00,
2013-02-02 08:41:00,23.6,12.8,30.38,SSW,197,1.0,2.0,63,0.00,,,0.00,Wunderground v.1.15,2013-02-02 13:41:00,
2013-02-02 08:44:00,23.9,12.0,30.38,SSW,201,1.0,2.0,60,0.00,,,0.00,Wunderground v.1.15,2013-02-02 13:44:00,
2013-02-02 08:46:00,24.2,11.9,30.38,South,169,0.0,2.0,59,0.00,,,0.00,Wunderground v.1.15,2013-02-02 13:46:00,
2013-02-02 08:48:00,24.4,12.1,30.38,SSW,200,2.0,2.0,59,0.00,,,0.00,Wunderground v.1.15,2013-02-02 13:48:00,
2013-02-02 08:49:00,24.4,11.7,30.38,South,176,2.0,2.0,58,0.00,,,0.00,Wunderground v.1.15,2013-02-02 13:49:00,
2013-02-02 08:51:00,24.6,11.9,30.38,South,177,1.0,2.0,58,0.00,,,0.00,Wunderground v.1.15,2013-02-02 13:51:00,
2013-02-02 08:54:00,24.8,11.7,30.38,ESE,105,1.0,2.0,57,0.00,,,0.00,Wunderground v.1.15,2013-02-02 13:54:00,
2013-02-02 08:56:00,25.0,11.9,30.38,SSW,197,1.0,3.0,57,0.00,,,0.00,Wunderground v.1.15,2013-02-02 13:56:00,
2013-02-02 08:59:00,25.2,11.3,30.38,SW,217,1.0,3.0,55,0.00,,,0.00,Wunderground v.1.15,2013-02-02 13:59:00,
2013-02-02 09:00:00,25.3,11.4,30.38,SSW,196,2.0,2.0,55,0.00,,,0.00,Wunderground v.1.15,2013-02-02 14:00:00,
2013-02-02 09:01:00,25.4,11.0,30.38,SSE,150,2.0,2.0,54,0.00,,,0.00,Wunderground v.1.15,2013-02-02 14:01:00,
2013-02-02 09:04:00,25.6,10.8,30.38,SE,131,1.0,2.0,53,0.00,,,0.00,Wunderground v.1.15,2013-02-02 14:04:00,
2013-02-02 09:05:00,25.7,10.9,30.38,ESE,110,1.0,2.0,53,0.00,,,0.00,Wunderground v.1.15,2013-02-02 14:05:00,
2013-02-02 09:06:00,25.8,11.0,30.38,ESE,121,1.0,2.0,53,0.00,,,0.00,Wunderground v.1.15,2013-02-02 14:06:00,
2013-02-02 09:09:00,25.9,10.7,30.37,ESE,111,1.0,3.0,52,0.00,,,0.00,Wunderground v.1.15,2013-02-02 14:09:00,
2013-02-02 09:10:00,26.0,10.8,30.37,ESE,107,1.0,2.0,52,0.00,,,0.00,Wunderground v.1.15,2013-02-02 14:10:00,
2013-02-02 09:12:00,26.1,10.9,30.37,SSW,202,1.0,2.0,52,0.00,,,0.00,Wunderground v.1.15,2013-02-02 14:12:00,
2013-02-02 09:14:00,26.3,11.0,30.37,South,176,0.0,2.0,52,0.00,,,0.00,Wunderground v.1.15,2013-02-02 14:14:00,
2013-02-02 09:15:00,26.4,11.1,30.37,South,176,0.0,2.0,52,0.00,,,0.00,Wunderground v.1.15,2013-02-02 14:15:00,
2013-02-02 09:17:00,26.4,11.1,30.37,ESE,113,1.0,2.0,52,0.00,,,0.00,Wunderground v.1.15,2013-02-02 14:17:00,
2013-02-02 09:19:00,26.6,10.4,30.38,ESE,106,2.0,4.0,50,0.00,,,0.00,Wunderground v.1.15,2013-02-02 14:19:00,
2013-02-02 09:20:00,26.6,10.4,30.38,ESE,105,1.0,4.0,50,0.00,,,0.00,Wunderground v.1.15,2013-02-02 14:20:00,
2013-02-02 09:21:00,26.7,10.5,30.37,ESE,105,1.0,1.0,50,0.00,,,0.00,Wunderground v.1.15,2013-02-02 14:21:00,
2013-02-02 09:22:00,26.7,10.5,30.37,ENE,63,2.0,2.0,50,0.00,,,0.00,Wunderground v.1.15,2013-02-02 14:22:00,
2013-02-02 09:24:00,26.9,11.2,30.37,SSW,194,1.0,2.0,51,0.00,,,0.00,Wunderground v.1.15,2013-02-02 14:24:00,
2013-02-02 09:25:00,26.9,11.2,30.37,SSE,165,0.0,2.0,51,0.00,,,0.00,Wunderground v.1.15,2013-02-02 14:25:00,
2013-02-02 09:26:00,27.0,10.8,30.37,ESE,111,0.0,3.0,50,0.00,,,0.00,Wunderground v.1.15,2013-02-02 14:26:00,
2013-02-02 09:27:00,27.1,11.3,30.37,ESE,112,1.0,3.0,51,0.00,,,0.00,Wunderground v.1.15,2013-02-02 14:27:00,
2013-02-02 09:30:00,27.3,11.5,30.37,ESE,116,1.0,1.0,51,0.00,,,0.00,Wunderground v.1.15,2013-02-02 14:30:00,
2013-02-02 09:32:00,27.4,11.2,30.37,ENE,69,1.0,2.0,50,0.00,,,0.00,Wunderground v.1.15,2013-02-02 14:32:00,
2013-02-02 09:35:00,27.6,11.4,30.37,East,90,0.0,2.0,50,0.00,,,0.00,Wunderground v.1.15,2013-02-02 14:35:00,
2013-02-02 09:37:00,27.8,11.5,30.37,ENE,69,1.0,2.0,50,0.00,,,0.00,Wunderground v.1.15,2013-02-02 14:37:00,
2013-02-02 09:40:00,28.1,11.8,30.37,SSE,150,2.0,2.0,50,0.00,,,0.00,Wunderground v.1.15,2013-02-02 14:40:00,
2013-02-02 09:42:00,28.2,11.5,30.37,SSE,167,2.0,3.0,49,0.00,,,0.00,Wunderground v.1.15,2013-02-02 14:42:00,
2013-02-02 09:45:00,28.4,11.6,30.37,SSE,158,0.0,3.0,49,0.00,,,0.00,Wunderground v.1.15,2013-02-02 14:45:00,
2013-02-02 09:48:00,28.5,11.7,30.37,SSW,195,1.0,3.0,49,0.00,,,0.00,Wunderground v.1.15,2013-02-02 14:48:00,
2013-02-02 09:50:00,28.6,11.4,30.37,East,101,1.0,1.0,48,0.00,,,0.00,Wunderground v.1.15,2013-02-02 14:50:00,
2013-02-02 09:53:00,28.7,11.9,30.37,SE,142,1.0,2.0,49,0.00,,,0.00,Wunderground v.1.15,2013-02-02 14:53:00,
2013-02-02 09:55:00,28.8,11.6,30.37,SE,143,0.0,2.0,48,0.00,,,0.00,Wunderground v.1.15,2013-02-02 14:55:00,
2013-02-02 09:56:00,28.9,12.1,30.37,SE,142,0.0,2.0,49,0.00,,,0.00,Wunderground v.1.15,2013-02-02 14:56:00,
2013-02-02 09:58:00,29.0,11.7,30.37,SE,145,1.0,2.0,48,0.00,,,0.00,Wunderground v.1.15,2013-02-02 14:58:00,
2013-02-02 10:00:00,29.2,11.9,30.37,SE,143,2.0,2.0,48,0.00,,,0.00,Wunderground v.1.15,2013-02-02 15:00:00,
2013-02-02 10:01:00,29.3,11.5,30.36,SSW,207,1.0,3.0,47,0.00,,,0.00,Wunderground v.1.15,2013-02-02 15:01:00,
2013-02-02 10:03:00,29.4,12.1,30.36,SSW,195,0.0,3.0,48,0.00,,,0.00,Wunderground v.1.15,2013-02-02 15:03:00,
2013-02-02 10:05:00,29.7,12.4,30.36,SE,126,0.0,3.0,48,0.00,,,0.00,Wunderground v.1.15,2013-02-02 15:05:00,
2013-02-02 10:06:00,29.8,12.5,30.36,SSE,150,1.0,3.0,48,0.00,,,0.00,Wunderground v.1.15,2013-02-02 15:06:00,
2013-02-02 10:08:00,30.0,12.2,30.36,SSE,149,0.0,3.0,47,0.00,,,0.00,Wunderground v.1.15,2013-02-02 15:08:00,
2013-02-02 10:10:00,30.3,12.5,30.36,SSW,211,1.0,1.0,47,0.00,,,0.00,Wunderground v.1.15,2013-02-02 15:10:00,
2013-02-02 10:11:00,30.4,12.5,30.36,South,186,3.0,5.0,47,0.00,,,0.00,Wunderground v.1.15,2013-02-02 15:11:00,
2013-02-02 10:13:00,30.5,11.7,30.36,SSW,201,2.0,5.0,45,0.00,,,0.00,Wunderground v.1.15,2013-02-02 15:13:00,
2013-02-02 10:15:00,30.6,11.7,30.36,WSW,252,2.0,5.0,45,0.00,,,0.00,Wunderground v.1.15,2013-02-02 15:15:00,
2013-02-02 10:16:00,30.6,11.2,30.36,SW,228,1.0,5.0,44,0.00,,,0.00,Wunderground v.1.15,2013-02-02 15:16:00,
2013-02-02 10:18:00,30.6,11.7,30.36,SW,218,0.0,5.0,45,0.00,,,0.00,Wunderground v.1.15,2013-02-02 15:18:00,
2013-02-02 10:21:00,30.8,11.4,30.36,SSW,212,0.0,2.0,44,0.00,,,0.00,Wunderground v.1.15,2013-02-02 15:21:00,
2013-02-02 10:22:00,30.9,11.5,30.36,SSW,212,1.0,2.0,44,0.00,,,0.00,Wunderground v.1.15,2013-02-02 15:22:00,
2013-02-02 10:23:00,31.0,11.6,30.36,SW,224,1.0,2.0,44,0.00,,,0.00,Wunderground v.1.15,2013-02-02 15:23:00,
2013-02-02 10:24:00,31.0,11.6,30.36,SW,224,1.0,2.0,44,0.00,,,0.00,Wunderground v.1.15,2013-02-02 15:24:00,
2013-02-02 10:26:00,31.3,11.4,30.36,SE,145,1.0,2.0,43,0.00,,,0.00,Wunderground v.1.15,2013-02-02 15:26:00,
2013-02-02 10:27:00,31.4,11.5,30.36,ESE,108,1.0,2.0,43,0.00,,,0.00,Wunderground v.1.15,2013-02-02 15:27:00,
2013-02-02 10:28:00,31.6,11.1,30.35,SE,125,3.0,3.0,42,0.00,,,0.00,Wunderground v.1.15,2013-02-02 15:28:00,
2013-02-02 10:29:00,31.6,11.1,30.35,SE,141,2.0,3.0,42,0.00,,,0.00,Wunderground v.1.15,2013-02-02 15:29:00,
2013-02-02 10:31:00,31.7,10.7,30.35,SSE,167,0.0,1.0,41,0.00,,,0.00,Wunderground v.1.15,2013-02-02 15:31:00,
2013-02-02 10:32:00,31.7,11.2,30.35,SSE,158,1.0,1.0,42,0.00,,,0.00,Wunderground v.1.15,2013-02-02 15:32:00,
2013-02-02 10:34:00,31.8,11.3,30.35,SE,134,0.0,2.0,42,0.00,,,0.00,Wunderground v.1.15,2013-02-02 15:34:00,
2013-02-02 10:37:00,32.0,10.4,30.35,SW,215,3.0,5.0,40,0.00,,,0.00,Wunderground v.1.15,2013-02-02 15:37:00,
2013-02-02 10:39:00,32.0,10.9,30.35,SSW,200,1.0,5.0,41,0.00,,,0.00,Wunderground v.1.15,2013-02-02 15:39:00,
2013-02-02 10:42:00,32.3,12.3,30.34,South,184,1.0,3.0,43,0.00,,,0.00,Wunderground v.1.15,2013-02-02 15:42:00,
2013-02-02 10:44:00,32.5,11.4,30.35,East,94,2.0,4.0,41,0.00,,,0.00,Wunderground v.1.15,2013-02-02 15:44:00,
2013-02-02 10:45:00,32.6,11.5,30.35,SW,224,1.0,4.0,41,0.00,,,0.00,Wunderground v.1.15,2013-02-02 15:45:00,
2013-02-02 10:47:00,32.8,11.6,30.34,SE,125,1.0,4.0,41,0.00,,,0.00,Wunderground v.1.15,2013-02-02 15:47:00,
2013-02-02 10:49:00,32.9,11.2,30.34,SSE,153,1.0,4.0,40,0.00,,,0.00,Wunderground v.1.15,2013-02-02 15:49:00,
2013-02-02 10:50:00,32.9,11.7,30.34,SE,143,1.0,1.0,41,0.00,,,0.00,Wunderground v.1.15,2013-02-02 15:50:00,
2013-02-02 10:52:00,33.0,11.3,30.33,SE,135,2.0,2.0,40,0.00,,,0.00,Wunderground v.1.15,2013-02-02 15:52:00,
2013-02-02 10:54:00,33.1,11.4,30.33,SSE,166,0.0,2.0,40,0.00,,,0.00,Wunderground v.1.15,2013-02-02 15:54:00,
2013-02-02 10:56:00,33.3,12.1,30.33,South,190,1.0,2.0,41,0.00,,,0.00,Wunderground v.1.15,2013-02-02 15:56:00,
2013-02-02 10:57:00,33.5,12.3,30.33,SW,215,0.0,2.0,41,0.00,,,0.00,Wunderground v.1.15,2013-02-02 15:57:00,
2013-02-02 10:59:00,33.7,11.9,30.33,ESE,122,3.0,4.0,40,0.00,,,0.00,Wunderground v.1.15,2013-02-02 15:59:00,
2013-02-02 11:01:00,33.7,11.3,30.33,South,191,2.0,2.0,39,0.00,,,0.00,Wunderground v.1.15,2013-02-02 16:01:00,
2013-02-02 11:02:00,33.7,10.7,30.33,South,187,1.0,3.0,38,0.00,,,0.00,Wunderground v.1.15,2013-02-02 16:02:00,
2013-02-02 11:04:00,33.9,11.5,30.33,South,174,1.0,3.0,39,0.00,,,0.00,Wunderground v.1.15,2013-02-02 16:04:00,
2013-02-02 11:06:00,34.1,11.7,30.33,SW,229,2.0,3.0,39,0.00,,,0.00,Wunderground v.1.15,2013-02-02 16:06:00,
2013-02-02 11:07:00,34.2,12.4,30.33,SSE,155,2.0,3.0,40,0.00,,,0.00,Wunderground v.1.15,2013-02-02 16:07:00,
2013-02-02 11:08:00,34.3,11.9,30.33,SSE,162,2.0,3.0,39,0.00,,,0.00,Wunderground v.1.15,2013-02-02 16:08:00,
2013-02-02 11:09:00,34.4,11.4,30.32,SSE,159,4.0,5.0,38,0.00,,,0.00,Wunderground v.1.15,2013-02-02 16:09:00,
2013-02-02 11:11:00,34.3,10.7,30.32,South,169,1.0,3.0,37,0.00,,,0.00,Wunderground v.1.15,2013-02-02 16:11:00,
2013-02-02 11:12:00,34.3,11.3,30.32,SW,215,2.0,3.0,38,0.00,,,0.00,Wunderground v.1.15,2013-02-02 16:12:00,
2013-02-02 11:13:00,34.3,11.3,30.32,SW,214,3.0,4.0,38,0.00,,,0.00,Wunderground v.1.15,2013-02-02 16:13:00,
2013-02-02 11:14:00,34.2,10.6,30.32,SSW,212,1.0,4.0,37,0.00,,,0.00,Wunderground v.1.15,2013-02-02 16:14:00,
2013-02-02 11:17:00,34.1,11.7,30.32,SSW,211,5.0,5.0,39,0.00,,,0.00,Wunderground v.1.15,2013-02-02 16:17:00,
2013-02-02 11:18:00,34.1,11.1,30.32,SSW,210,2.0,6.0,38,0.00,,,0.00,Wunderground v.1.15,2013-02-02 16:18:00,
2013-02-02 11:19:00,34.0,11.0,30.32,SSW,211,2.0,6.0,38,0.00,,,0.00,Wunderground v.1.15,2013-02-02 16:19:00,
2013-02-02 11:22:00,33.9,10.9,30.32,SSW,198,2.0,4.0,38,0.00,,,0.00,Wunderground v.1.15,2013-02-02 16:22:00,
2013-02-02 11:23:00,33.8,10.8,30.32,SSW,193,2.0,4.0,38,0.00,,,0.00,Wunderground v.1.15,2013-02-02 16:23:00,
2013-02-02 11:25:00,33.8,11.4,30.31,SE,126,1.0,4.0,39,0.00,,,0.00,Wunderground v.1.15,2013-02-02 16:25:00,
2013-02-02 11:27:00,34.0,11.6,30.31,ESE,119,1.0,4.0,39,0.00,,,0.00,Wunderground v.1.15,2013-02-02 16:27:00,
2013-02-02 11:28:00,34.1,11.7,30.31,SSE,150,1.0,4.0,39,0.00,,,0.00,Wunderground v.1.15,2013-02-02 16:28:00,
2013-02-02 11:30:00,34.2,11.8,30.31,SSW,203,1.0,1.0,39,0.00,,,0.00,Wunderground v.1.15,2013-02-02 16:30:00,
2013-02-02 11:32:00,34.4,11.4,30.31,South,171,0.0,3.0,38,0.00,,,0.00,Wunderground v.1.15,2013-02-02 16:32:00,
2013-02-02 11:33:00,34.4,11.4,30.31,South,188,0.0,3.0,38,0.00,,,0.00,Wunderground v.1.15,2013-02-02 16:33:00,
2013-02-02 11:35:00,34.5,11.5,30.31,South,174,3.0,3.0,38,0.00,,,0.00,Wunderground v.1.15,2013-02-02 16:35:00,
2013-02-02 11:37:00,34.6,11.6,30.31,East,100,2.0,3.0,38,0.00,,,0.00,Wunderground v.1.15,2013-02-02 16:37:00,
2013-02-02 11:38:00,34.6,11.6,30.31,ESE,121,2.0,4.0,38,0.00,,,0.00,Wunderground v.1.15,2013-02-02 16:38:00,
2013-02-02 11:39:00,34.6,11.0,30.31,SSE,156,3.0,4.0,37,0.00,,,0.00,Wunderground v.1.15,2013-02-02 16:39:00,
2013-02-02 11:40:00,34.5,11.5,30.30,SSE,155,1.0,2.0,38,0.00,,,0.00,Wunderground v.1.15,2013-02-02 16:40:00,
2013-02-02 11:42:00,34.7,11.0,30.30,SE,140,3.0,4.0,37,0.00,,,0.00,Wunderground v.1.15,2013-02-02 16:42:00,
2013-02-02 11:43:00,34.7,11.0,30.30,South,170,3.0,4.0,37,0.00,,,0.00,Wunderground v.1.15,2013-02-02 16:43:00,
2013-02-02 11:44:00,34.6,11.0,30.30,ESE,116,2.0,4.0,37,0.00,,,0.00,Wunderground v.1.15,2013-02-02 16:44:00,
2013-02-02 11:46:00,34.6,11.0,30.30,SE,127,0.0,4.0,37,0.00,,,0.00,Wunderground v.1.15,2013-02-02 16:46:00,
2013-02-02 11:47:00,34.8,11.7,30.30,South,175,2.0,5.0,38,0.00,,,0.00,Wunderground v.1.15,2013-02-02 16:47:00,
2013-02-02 11:48:00,34.8,11.1,30.30,SE,138,1.0,5.0,37,0.00,,,0.00,Wunderground v.1.15,2013-02-02 16:48:00,
2013-02-02 11:49:00,34.8,10.5,30.29,SSW,212,3.0,5.0,36,0.00,,,0.00,Wunderground v.1.15,2013-02-02 16:49:00,
2013-02-02 11:51:00,34.8,10.5,30.29,SSW,208,3.0,5.0,36,0.00,,,0.00,Wunderground v.1.15,2013-02-02 16:51:00,
2013-02-02 11:52:00,34.7,10.4,30.29,SE,124,1.0,5.0,36,0.00,,,0.00,Wunderground v.1.15,2013-02-02 16:52:00,
2013-02-02 11:53:00,34.7,10.4,30.29,SSE,158,2.0,5.0,36,0.00,,,0.00,Wunderground v.1.15,2013-02-02 16:53:00,
2013-02-02 11:54:00,34.7,11.0,30.29,SSE,155,3.0,5.0,37,0.00,,,0.00,Wunderground v.1.15,2013-02-02 16:54:00,
2013-02-02 11:56:00,34.8,11.1,30.29,SSW,208,3.0,5.0,37,0.00,,,0.00,Wunderground v.1.15,2013-02-02 16:56:00,
2013-02-02 11:57:00,35.0,11.9,30.29,SSW,195,4.0,5.0,38,0.00,,,0.00,Wunderground v.1.15,2013-02-02 16:57:00,
2013-02-02 11:58:00,35.1,12.0,30.29,SSE,149,1.0,5.0,38,0.00,,,0.00,Wunderground v.1.15,2013-02-02 16:58:00,
2013-02-02 11:59:00,35.3,11.6,30.29,SSW,208,1.0,5.0,37,0.00,,,0.00,Wunderground v.1.15,2013-02-02 16:59:00,
2013-02-02 12:01:00,35.5,11.8,30.29,South,172,2.0,2.0,37,0.00,,,0.00,Wunderground v.1.15,2013-02-02 17:01:00,
2013-02-02 12:02:00,35.9,12.7,30.28,SSW,200,1.0,2.0,38,0.00,,,0.00,Wunderground v.1.15,2013-02-02 17:02:00,
2013-02-02 12:03:00,36.1,12.9,30.28,WSW,245,0.0,2.0,38,0.00,,,0.00,Wunderground v.1.15,2013-02-02 17:03:00,
2013-02-02 12:04:00,36.3,12.5,30.28,WSW,238,0.0,2.0,37,0.00,,,0.00,Wunderground v.1.15,2013-02-02 17:04:00,
2013-02-02 12:06:00,36.5,12.0,30.28,SSW,192,1.0,2.0,36,0.00,,,0.00,Wunderground v.1.15,2013-02-02 17:06:00,
2013-02-02 12:08:00,36.8,12.3,30.28,South,187,3.0,3.0,36,0.00,,,0.00,Wunderground v.1.15,2013-02-02 17:08:00,
2013-02-02 12:10:00,36.9,11.1,30.27,SSW,200,1.0,4.0,34,0.00,,,0.00,Wunderground v.1.15,2013-02-02 17:10:00,
2013-02-02 12:11:00,36.8,11.0,30.27,SW,231,1.0,4.0,34,0.00,,,0.00,Wunderground v.1.15,2013-02-02 17:11:00,
2013-02-02 12:13:00,36.7,12.2,30.27,SSW,194,1.0,4.0,36,0.00,,,0.00,Wunderground v.1.15,2013-02-02 17:13:00,
2013-02-02 12:14:00,36.8,12.3,30.27,SSW,211,2.0,4.0,36,0.00,,,0.00,Wunderground v.1.15,2013-02-02 17:14:00,
2013-02-02 12:15:00,36.9,11.8,30.27,SSW,203,2.0,5.0,35,0.00,,,0.00,Wunderground v.1.15,2013-02-02 17:15:00,
2013-02-02 12:16:00,36.9,11.8,30.27,SSW,207,2.0,5.0,35,0.00,,,0.00,Wunderground v.1.15,2013-02-02 17:16:00,
2013-02-02 12:18:00,37.0,11.8,30.27,SSE,153,1.0,5.0,35,0.00,,,0.00,Wunderground v.1.15,2013-02-02 17:18:00,
2013-02-02 12:19:00,37.0,11.2,30.27,SSE,147,3.0,6.0,34,0.00,,,0.00,Wunderground v.1.15,2013-02-02 17:19:00,
2013-02-02 12:20:00,36.9,11.1,30.27,ESE,110,2.0,3.0,34,0.00,,,0.00,Wunderground v.1.15,2013-02-02 17:20:00,
2013-02-02 12:21:00,36.9,11.1,30.26,ESE,123,3.0,3.0,34,0.00,,,0.00,Wunderground v.1.15,2013-02-02 17:21:00,
2013-02-02 12:23:00,36.8,11.7,30.26,SSW,201,2.0,3.0,35,0.00,,,0.00,Wunderground v.1.15,2013-02-02 17:23:00,
2013-02-02 12:24:00,36.8,11.7,30.26,SW,218,4.0,4.0,35,0.00,,,0.00,Wunderground v.1.15,2013-02-02 17:24:00,
2013-02-02 12:25:00,36.7,10.9,30.26,SSW,195,2.0,4.0,34,0.00,,,0.00,Wunderground v.1.15,2013-02-02 17:25:00,
2013-02-02 12:26:00,36.7,10.9,30.26,SSE,153,4.0,4.0,34,0.00,,,0.00,Wunderground v.1.15,2013-02-02 17:26:00,
2013-02-02 12:28:00,36.6,10.8,30.25,SSE,155,3.0,5.0,34,0.00,,,0.00,Wunderground v.1.15,2013-02-02 17:28:00,
2013-02-02 12:29:00,36.6,10.8,30.25,SSE,158,2.0,5.0,34,0.00,,,0.00,Wunderground v.1.15,2013-02-02 17:29:00,
2013-02-02 12:30:00,36.7,10.9,30.25,SSE,152,2.0,3.0,34,0.00,,,0.00,Wunderground v.1.15,2013-02-02 17:30:00,
2013-02-02 12:31:00,36.7,10.9,30.25,SE,146,3.0,3.0,34,0.00,,,0.00,Wunderground v.1.15,2013-02-02 17:31:00,
2013-02-02 12:33:00,36.8,11.7,30.25,SSW,205,2.0,5.0,35,0.00,,,0.00,Wunderground v.1.15,2013-02-02 17:33:00,
2013-02-02 12:34:00,36.8,11.0,30.25,SSW,213,3.0,5.0,34,0.00,,,0.00,Wunderground v.1.15,2013-02-02 17:34:00,
2013-02-02 12:35:00,36.9,11.8,30.25,ESE,121,2.0,5.0,35,0.00,,,0.00,Wunderground v.1.15,2013-02-02 17:35:00,
2013-02-02 12:36:00,36.9,11.8,30.25,SSE,163,2.0,5.0,35,0.00,,,0.00,Wunderground v.1.15,2013-02-02 17:36:00,
2013-02-02 12:38:00,37.0,11.2,30.24,South,175,3.0,6.0,34,0.00,,,0.00,Wunderground v.1.15,2013-02-02 17:38:00,
2013-02-02 12:39:00,37.1,11.9,30.24,SSW,198,3.0,6.0,35,0.00,,,0.00,Wunderground v.1.15,2013-02-02 17:39:00,
2013-02-02 12:40:00,37.2,12.0,30.24,South,188,1.0,3.0,35,0.00,,,0.00,Wunderground v.1.15,2013-02-02 17:40:00,
2013-02-02 12:41:00,37.2,12.0,30.24,SSW,212,1.0,3.0,35,0.00,,,0.00,Wunderground v.1.15,2013-02-02 17:41:00,
2013-02-02 12:43:00,37.2,11.4,30.23,SSW,207,1.0,7.0,34,0.00,,,0.00,Wunderground v.1.15,2013-02-02 17:43:00,
2013-02-02 12:44:00,37.2,12.0,30.23,SSW,192,2.0,7.0,35,0.00,,,0.00,Wunderground v.1.15,2013-02-02 17:44:00,
2013-02-02 12:45:00,37.2,11.4,30.23,SE,128,1.0,7.0,34,0.00,,,0.00,Wunderground v.1.15,2013-02-02 17:45:00,
2013-02-02 12:46:00,37.3,12.1,30.23,SW,214,2.0,7.0,35,0.00,,,0.00,Wunderground v.1.15,2013-02-02 17:46:00,
2013-02-02 12:48:00,37.5,11.6,30.23,SW,228,4.0,9.0,34,0.00,,,0.00,Wunderground v.1.15,2013-02-02 17:48:00,
2013-02-02 12:49:00,37.5,11.6,30.23,SSW,203,3.0,9.0,34,0.00,,,0.00,Wunderground v.1.15,2013-02-02 17:49:00,
2013-02-02 12:51:00,37.5,12.3,30.23,ESE,120,3.0,3.0,35,0.00,,,0.00,Wunderground v.1.15,2013-02-02 17:51:00,
2013-02-02 12:53:00,37.7,11.8,30.23,South,169,1.0,5.0,34,0.00,,,0.00,Wunderground v.1.15,2013-02-02 17:53:00,
2013-02-02 12:54:00,37.8,11.9,30.23,SSW,208,4.0,8.0,34,0.00,,,0.00,Wunderground v.1.15,2013-02-02 17:54:00,
2013-02-02 12:56:00,37.8,11.9,30.23,South,173,3.0,8.0,34,0.00,,,0.00,Wunderground v.1.15,2013-02-02 17:56:00,
2013-02-02 12:58:00,37.6,11.7,30.23,East,95,2.0,9.0,34,0.00,,,0.00,Wunderground v.1.15,2013-02-02 17:58:00,
2013-02-02 12:59:00,37.6,12.4,30.23,SSW,207,4.0,9.0,35,0.00,,,0.00,Wunderground v.1.15,2013-02-02 17:59:00,
2013-02-02 13:01:00,37.6,11.7,30.23,SW,219,6.0,6.0,34,0.00,,,0.00,Wunderground v.1.15,2013-02-02 18:01:00,
2013-02-02 13:03:00,37.7,12.5,30.23,WSW,255,7.0,11.0,35,0.00,,,0.00,Wunderground v.1.15,2013-02-02 18:03:00,
2013-02-02 13:05:00,37.7,11.8,30.22,SSW,213,4.0,11.0,34,0.00,,,0.00,Wunderground v.1.15,2013-02-02 18:05:00,
2013-02-02 13:06:00,37.7,11.8,30.22,SSW,193,0.0,11.0,34,0.00,,,0.00,Wunderground v.1.15,2013-02-02 18:06:00,
2013-02-02 13:08:00,38.0,12.7,30.22,SSW,197,2.0,11.0,35,0.00,,,0.00,Wunderground v.1.15,2013-02-02 18:08:00,
2013-02-02 13:10:00,38.1,12.8,30.22,SE,141,4.0,11.0,35,0.00,,,0.00,Wunderground v.1.15,2013-02-02 18:10:00,
2013-02-02 13:11:00,38.3,13.0,30.22,SSW,211,2.0,3.0,35,0.00,,,0.00,Wunderground v.1.15,2013-02-02 18:11:00,
2013-02-02 13:14:00,38.8,14.1,30.21,SE,130,1.0,3.0,36,0.00,,,0.00,Wunderground v.1.15,2013-02-02 18:14:00,
2013-02-02 13:15:00,39.0,13.6,30.21,SSW,208,3.0,3.0,35,0.00,,,0.00,Wunderground v.1.15,2013-02-02 18:15:00,
2013-02-02 13:16:00,39.1,13.7,30.22,SSW,212,5.0,8.0,35,0.00,,,0.00,Wunderground v.1.15,2013-02-02 18:16:00,
2013-02-02 13:17:00,39.1,12.4,30.22,SE,124,4.0,8.0,33,0.00,,,0.00,Wunderground v.1.15,2013-02-02 18:17:00,
2013-02-02 13:19:00,39.1,13.1,30.22,ESE,106,3.0,8.0,34,0.00,,,0.00,Wunderground v.1.15,2013-02-02 18:19:00,
2013-02-02 13:20:00,39.2,13.1,30.21,SSW,198,5.0,7.0,34,0.00,,,0.00,Wunderground v.1.15,2013-02-02 18:20:00,
2013-02-02 13:21:00,39.3,12.6,30.21,SE,139,1.0,7.0,33,0.00,,,0.00,Wunderground v.1.15,2013-02-02 18:21:00,
2013-02-02 13:22:00,39.2,12.5,30.21,ESE,106,2.0,7.0,33,0.00,,,0.00,Wunderground v.1.15,2013-02-02 18:22:00,
2013-02-02 13:24:00,39.4,12.6,30.20,SW,225,3.0,7.0,33,0.00,,,0.00,Wunderground v.1.15,2013-02-02 18:24:00,
2013-02-02 13:25:00,39.5,12.7,30.20,SW,231,2.0,7.0,33,0.00,,,0.00,Wunderground v.1.15,2013-02-02 18:25:00,
2013-02-02 13:27:00,39.6,12.8,30.20,SSW,195,4.0,7.0,33,0.00,,,0.00,Wunderground v.1.15,2013-02-02 18:27:00,
2013-02-02 13:29:00,39.7,12.9,30.20,ESE,122,1.0,7.0,33,0.00,,,0.00,Wunderground v.1.15,2013-02-02 18:29:00,
2013-02-02 13:30:00,40.0,13.8,30.20,SSW,212,4.0,4.0,34,0.00,,,0.00,Wunderground v.1.15,2013-02-02 18:30:00,
2013-02-02 13:32:00,40.1,13.3,30.20,SSE,158,2.0,7.0,33,0.00,,,0.00,Wunderground v.1.15,2013-02-02 18:32:00,
2013-02-02 13:34:00,40.3,13.4,30.19,SSE,155,4.0,7.0,33,0.00,,,0.00,Wunderground v.1.15,2013-02-02 18:34:00,
2013-02-02 13:35:00,40.4,12.8,30.19,South,190,6.0,7.0,32,0.00,,,0.00,Wunderground v.1.15,2013-02-02 18:35:00,
2013-02-02 13:37:00,40.4,12.8,30.20,SSW,202,2.0,8.0,32,0.00,,,0.00,Wunderground v.1.15,2013-02-02 18:37:00,
2013-02-02 13:39:00,40.4,12.1,30.19,South,181,1.0,8.0,31,0.00,,,0.00,Wunderground v.1.15,2013-02-02 18:39:00,
2013-02-02 13:40:00,40.5,13.6,30.19,South,169,1.0,3.0,33,0.00,,,0.00,Wunderground v.1.15,2013-02-02 18:40:00,
2013-02-02 13:42:00,40.6,13.7,30.19,SSE,149,2.0,3.0,33,0.00,,,0.00,Wunderground v.1.15,2013-02-02 18:42:00,
2013-02-02 13:43:00,40.8,13.9,30.19,SE,136,2.0,3.0,33,0.00,,,0.00,Wunderground v.1.15,2013-02-02 18:43:00,
2013-02-02 13:44:00,40.8,13.2,30.19,SSW,203,2.0,4.0,32,0.00,,,0.00,Wunderground v.1.15,2013-02-02 18:44:00,
2013-02-02 13:45:00,40.9,12.5,30.19,SSW,200,2.0,4.0,31,0.00,,,0.00,Wunderground v.1.15,2013-02-02 18:45:00,
2013-02-02 13:47:00,40.9,14.0,30.19,ESE,111,3.0,4.0,33,0.00,,,0.00,Wunderground v.1.15,2013-02-02 18:47:00,
2013-02-02 13:48:00,41.1,14.1,30.19,South,176,4.0,4.0,33,0.00,,,0.00,Wunderground v.1.15,2013-02-02 18:48:00,
2013-02-02 13:49:00,41.2,13.5,30.18,SSE,162,2.0,6.0,32,0.00,,,0.00,Wunderground v.1.15,2013-02-02 18:49:00,
2013-02-02 13:51:00,41.1,12.0,30.18,SSW,209,5.0,9.0,30,0.00,,,0.00,Wunderground v.1.15,2013-02-02 18:51:00,
2013-02-02 13:52:00,40.9,12.5,30.18,South,186,3.0,9.0,31,0.00,,,0.00,Wunderground v.1.15,2013-02-02 18:52:00,
2013-02-02 13:53:00,40.7,12.4,30.18,SSW,212,7.0,10.0,31,0.00,,,0.00,Wunderground v.1.15,2013-02-02 18:53:00,
2013-02-02 13:54:00,40.4,12.1,30.18,SSW,209,5.0,10.0,31,0.00,,,0.00,Wunderground v.1.15,2013-02-02 18:54:00,
2013-02-02 13:56:00,40.3,12.0,30.18,SSW,195,1.0,10.0,31,0.00,,,0.00,Wunderground v.1.15,2013-02-02 18:56:00,
2013-02-02 13:57:00,40.2,12.6,30.18,SSW,207,3.0,10.0,32,0.00,,,0.00,Wunderground v.1.15,2013-02-02 18:57:00,
2013-02-02 13:58:00,40.2,12.6,30.18,SW,220,2.0,10.0,32,0.00,,,0.00,Wunderground v.1.15,2013-02-02 18:58:00,
2013-02-02 13:59:00,40.2,11.9,30.18,SSW,195,5.0,10.0,31,0.00,,,0.00,Wunderground v.1.15,2013-02-02 18:59:00,
2013-02-02 14:01:00,40.2,12.6,30.18,SE,141,2.0,8.0,32,0.00,,,0.00,Wunderground v.1.15,2013-02-02 19:01:00,
2013-02-02 14:02:00,40.3,13.4,30.18,South,181,2.0,8.0,33,0.00,,,0.00,Wunderground v.1.15,2013-02-02 19:02:00,
2013-02-02 14:03:00,40.4,13.5,30.18,SW,229,1.0,8.0,33,0.00,,,0.00,Wunderground v.1.15,2013-02-02 19:03:00,
2013-02-02 14:05:00,41.0,14.7,30.18,South,186,2.0,8.0,34,0.00,,,0.00,Wunderground v.1.15,2013-02-02 19:05:00,
2013-02-02 14:06:00,41.2,14.2,30.18,SSW,212,4.0,8.0,33,0.00,,,0.00,Wunderground v.1.15,2013-02-02 19:06:00,
2013-02-02 14:07:00,41.3,13.6,30.18,SSW,205,7.0,11.0,32,0.00,,,0.00,Wunderground v.1.15,2013-02-02 19:07:00,
2013-02-02 14:08:00,41.1,12.7,30.17,SW,218,7.0,11.0,31,0.00,,,0.00,Wunderground v.1.15,2013-02-02 19:08:00,
2013-02-02 14:10:00,41.0,13.4,30.17,WNW,301,2.0,5.0,32,0.00,,,0.00,Wunderground v.1.15,2013-02-02 19:10:00,
2013-02-02 14:11:00,41.1,14.1,30.17,South,186,1.0,5.0,33,0.00,,,0.00,Wunderground v.1.15,2013-02-02 19:11:00,
2013-02-02 14:12:00,41.2,14.2,30.17,SSW,203,1.0,5.0,33,0.00,,,0.00,Wunderground v.1.15,2013-02-02 19:12:00,
2013-02-02 14:14:00,41.4,14.4,30.17,SSW,200,3.0,5.0,33,0.00,,,0.00,Wunderground v.1.15,2013-02-02 19:14:00,
2013-02-02 14:15:00,41.7,14.7,30.17,South,179,2.0,5.0,33,0.00,,,0.00,Wunderground v.1.15,2013-02-02 19:15:00,
2013-02-02 14:16:00,41.9,14.8,30.17,SSW,211,3.0,5.0,33,0.00,,,0.00,Wunderground v.1.15,2013-02-02 19:16:00,
2013-02-02 14:17:00,42.0,13.5,30.17,SW,217,4.0,7.0,31,0.00,,,0.00,Wunderground v.1.15,2013-02-02 19:17:00,
2013-02-02 14:19:00,42.1,13.6,30.17,East,86,3.0,7.0,31,0.00,,,0.00,Wunderground v.1.15,2013-02-02 19:19:00,
2013-02-02 14:20:00,42.2,13.7,30.17,SW,214,7.0,7.0,31,0.00,,,0.00,Wunderground v.1.15,2013-02-02 19:20:00,
2013-02-02 14:21:00,42.0,12.0,30.17,SSW,207,5.0,7.0,29,0.00,,,0.00,Wunderground v.1.15,2013-02-02 19:21:00,
2013-02-02 14:22:00,41.9,12.7,30.17,SW,218,3.0,7.0,30,0.00,,,0.00,Wunderground v.1.15,2013-02-02 19:22:00,
2013-02-02 14:24:00,41.9,13.4,30.17,SSE,158,0.0,7.0,31,0.00,,,0.00,Wunderground v.1.15,2013-02-02 19:24:00,
2013-02-02 14:25:00,42.1,13.6,30.16,ESE,118,1.0,7.0,31,0.00,,,0.00,Wunderground v.1.15,2013-02-02 19:25:00,
2013-02-02 14:26:00,42.3,13.0,30.16,SW,218,1.0,7.0,30,0.00,,,0.00,Wunderground v.1.15,2013-02-02 19:26:00,
2013-02-02 14:27:00,42.4,13.1,30.16,SW,219,6.0,7.0,30,0.00,,,0.00,Wunderground v.1.15,2013-02-02 19:27:00,
2013-02-02 14:29:00,42.4,13.1,30.16,SSW,210,8.0,13.0,30,0.00,,,0.00,Wunderground v.1.15,2013-02-02 19:29:00,
2013-02-02 14:30:00,42.2,12.2,30.16,SSE,152,4.0,6.0,29,0.00,,,0.00,Wunderground v.1.15,2013-02-02 19:30:00,
2013-02-02 14:32:00,42.1,12.1,30.16,ESE,121,4.0,8.0,29,0.00,,,0.00,Wunderground v.1.15,2013-02-02 19:32:00,
2013-02-02 14:34:00,42.0,12.0,30.16,SSW,205,6.0,10.0,29,0.00,,,0.00,Wunderground v.1.15,2013-02-02 19:34:00,
2013-02-02 14:35:00,41.9,11.1,30.16,SSW,207,5.0,11.0,28,0.00,,,0.00,Wunderground v.1.15,2013-02-02 19:35:00,
2013-02-02 14:37:00,41.8,11.8,30.15,SW,221,5.0,11.0,29,0.00,,,0.00,Wunderground v.1.15,2013-02-02 19:37:00,
2013-02-02 14:39:00,42.0,12.8,30.15,SW,226,3.0,11.0,30,0.00,,,0.00,Wunderground v.1.15,2013-02-02 19:39:00,
2013-02-02 14:41:00,42.2,12.9,30.15,SW,218,4.0,6.0,30,0.00,,,0.00,Wunderground v.1.15,2013-02-02 19:41:00,
2013-02-02 14:42:00,42.4,13.1,30.15,SSW,193,4.0,6.0,30,0.00,,,0.00,Wunderground v.1.15,2013-02-02 19:42:00,
2013-02-02 14:43:00,42.5,13.2,30.15,SSW,211,2.0,6.0,30,0.00,,,0.00,Wunderground v.1.15,2013-02-02 19:43:00,
2013-02-02 14:44:00,42.7,13.4,30.15,SSW,207,5.0,6.0,30,0.00,,,0.00,Wunderground v.1.15,2013-02-02 19:44:00,
2013-02-02 14:46:00,42.8,12.7,30.15,SSW,205,2.0,6.0,29,0.00,,,0.00,Wunderground v.1.15,2013-02-02 19:46:00,
2013-02-02 14:47:00,42.9,12.8,30.15,SSE,165,4.0,6.0,29,0.00,,,0.00,Wunderground v.1.15,2013-02-02 19:47:00,
2013-02-02 14:48:00,42.9,12.8,30.14,South,183,2.0,6.0,29,0.00,,,0.00,Wunderground v.1.15,2013-02-02 19:48:00,
2013-02-02 14:50:00,43.0,13.6,30.15,SSE,148,2.0,3.0,30,0.00,,,0.00,Wunderground v.1.15,2013-02-02 19:50:00,
2013-02-02 14:51:00,43.1,13.7,30.15,South,181,0.0,3.0,30,0.00,,,0.00,Wunderground v.1.15,2013-02-02 19:51:00,
2013-02-02 14:52:00,43.2,14.6,30.15,ESE,104,5.0,7.0,31,0.00,,,0.00,Wunderground v.1.15,2013-02-02 19:52:00,
2013-02-02 14:53:00,43.2,13.0,30.15,South,190,2.0,7.0,29,0.00,,,0.00,Wunderground v.1.15,2013-02-02 19:53:00,
2013-02-02 14:56:00,43.1,12.9,30.15,SSW,210,4.0,7.0,29,0.00,,,0.00,Wunderground v.1.15,2013-02-02 19:56:00,
2013-02-02 14:57:00,42.9,12.8,30.15,ESE,120,1.0,7.0,29,0.00,,,0.00,Wunderground v.1.15,2013-02-02 19:57:00,
2013-02-02 14:58:00,42.8,13.5,30.15,ESE,117,2.0,7.0,30,0.00,,,0.00,Wunderground v.1.15,2013-02-02 19:58:00,
2013-02-02 15:01:00,42.8,13.5,30.14,SSW,200,5.0,5.0,30,0.00,,,0.00,Wunderground v.1.15,2013-02-02 20:01:00,
2013-02-02 15:02:00,42.7,12.6,30.14,SSE,147,5.0,7.0,29,0.00,,,0.00,Wunderground v.1.15,2013-02-02 20:02:00,
2013-02-02 15:03:00,42.7,12.6,30.14,SE,134,3.0,7.0,29,0.00,,,0.00,Wunderground v.1.15,2013-02-02 20:03:00,
2013-02-02 15:06:00,42.7,13.4,30.14,South,190,3.0,7.0,30,0.00,,,0.00,Wunderground v.1.15,2013-02-02 20:06:00,
2013-02-02 15:07:00,42.7,13.4,30.14,SSW,205,3.0,7.0,30,0.00,,,0.00,Wunderground v.1.15,2013-02-02 20:07:00,
2013-02-02 15:08:00,42.8,13.5,30.14,WSW,239,1.0,7.0,30,0.00,,,0.00,Wunderground v.1.15,2013-02-02 20:08:00,
2013-02-02 15:11:00,43.0,14.4,30.14,SSW,207,3.0,6.0,31,0.00,,,0.00,Wunderground v.1.15,2013-02-02 20:11:00,
2013-02-02 15:12:00,43.2,13.8,30.14,South,191,2.0,8.0,30,0.00,,,0.00,Wunderground v.1.15,2013-02-02 20:12:00,
2013-02-02 15:13:00,43.3,13.9,30.14,SW,215,1.0,8.0,30,0.00,,,0.00,Wunderground v.1.15,2013-02-02 20:13:00,
2013-02-02 15:16:00,43.6,14.2,30.13,SW,236,5.0,8.0,30,0.00,,,0.00,Wunderground v.1.15,2013-02-02 20:16:00,
2013-02-02 15:17:00,43.6,13.4,30.13,SSW,197,3.0,8.0,29,0.00,,,0.00,Wunderground v.1.15,2013-02-02 20:17:00,
2013-02-02 15:18:00,43.7,13.5,30.13,SSW,207,3.0,8.0,29,0.00,,,0.00,Wunderground v.1.15,2013-02-02 20:18:00,
2013-02-02 15:19:00,43.7,13.5,30.14,South,191,2.0,8.0,29,0.00,,,0.00,Wunderground v.1.15,2013-02-02 20:19:00,
2013-02-02 15:21:00,43.7,13.5,30.14,SSE,167,1.0,7.0,29,0.00,,,0.00,Wunderground v.1.15,2013-02-02 20:21:00,
2013-02-02 15:22:00,43.7,14.2,30.14,SSW,193,3.0,7.0,30,0.00,,,0.00,Wunderground v.1.15,2013-02-02 20:22:00,
2013-02-02 15:23:00,43.7,13.5,30.14,SSW,193,4.0,7.0,29,0.00,,,0.00,Wunderground v.1.15,2013-02-02 20:23:00,
2013-02-02 15:24:00,43.6,13.4,30.14,ESE,109,3.0,7.0,29,0.00,,,0.00,Wunderground v.1.15,2013-02-02 20:24:00,
2013-02-02 15:27:00,43.4,13.2,30.13,SSE,150,1.0,7.0,29,0.00,,,0.00,Wunderground v.1.15,2013-02-02 20:27:00,
2013-02-02 15:28:00,43.4,14.0,30.13,South,183,1.0,7.0,30,0.00,,,0.00,Wunderground v.1.15,2013-02-02 20:28:00,
2013-02-02 15:29:00,43.3,13.1,30.13,SSW,194,3.0,7.0,29,0.00,,,0.00,Wunderground v.1.15,2013-02-02 20:29:00,
2013-02-02 15:32:00,43.3,13.1,30.13,SW,214,6.0,6.0,29,0.00,,,0.00,Wunderground v.1.15,2013-02-02 20:32:00,
2013-02-02 15:33:00,43.3,13.9,30.13,SE,132,4.0,6.0,30,0.00,,,0.00,Wunderground v.1.15,2013-02-02 20:33:00,
2013-02-02 15:34:00,43.3,13.9,30.13,SSE,148,2.0,6.0,30,0.00,,,0.00,Wunderground v.1.15,2013-02-02 20:34:00,
2013-02-02 15:37:00,43.5,14.1,30.12,South,183,2.0,6.0,30,0.00,,,0.00,Wunderground v.1.15,2013-02-02 20:37:00,
2013-02-02 15:38:00,43.6,14.2,30.12,ENE,77,1.0,6.0,30,0.00,,,0.00,Wunderground v.1.15,2013-02-02 20:38:00,
2013-02-02 15:39:00,43.6,14.2,30.12,SSW,192,3.0,6.0,30,0.00,,,0.00,Wunderground v.1.15,2013-02-02 20:39:00,
2013-02-02 15:42:00,43.8,14.3,30.12,SE,136,0.0,3.0,30,0.00,,,0.00,Wunderground v.1.15,2013-02-02 20:42:00,
2013-02-02 15:44:00,43.9,14.4,30.12,SE,128,1.0,3.0,30,0.00,,,0.00,Wunderground v.1.15,2013-02-02 20:44:00,
2013-02-02 15:47:00,44.1,15.3,30.12,SSW,203,3.0,4.0,31,0.00,,,0.00,Wunderground v.1.15,2013-02-02 20:47:00,
2013-02-02 15:49:00,44.1,13.8,30.11,SSW,203,1.0,7.0,29,0.00,,,0.00,Wunderground v.1.15,2013-02-02 20:49:00,
2013-02-02 15:52:00,44.2,13.9,30.12,SSW,203,2.0,4.0,29,0.00,,,0.00,Wunderground v.1.15,2013-02-02 20:52:00,
2013-02-02 15:54:00,44.3,14.8,30.11,SW,214,4.0,4.0,30,0.00,,,0.00,Wunderground v.1.15,2013-02-02 20:54:00,
2013-02-02 15:57:00,44.5,14.2,30.11,SW,222,2.0,7.0,29,0.00,,,0.00,Wunderground v.1.15,2013-02-02 20:57:00,
2013-02-02 15:59:00,44.5,14.2,30.11,South,179,2.0,7.0,29,0.00,,,0.00,Wunderground v.1.15,2013-02-02 20:59:00,
2013-02-02 16:02:00,44.5,13.4,30.11,SSW,205,1.0,4.0,28,0.00,,,0.00,Wunderground v.1.15,2013-02-02 21:02:00,
2013-02-02 16:04:00,44.5,14.2,30.11,SW,217,0.0,4.0,29,0.00,,,0.00,Wunderground v.1.15,2013-02-02 21:04:00,
2013-02-02 16:07:00,44.4,13.3,30.11,SW,227,5.0,8.0,28,0.00,,,0.00,Wunderground v.1.15,2013-02-02 21:07:00,
2013-02-02 16:09:00,44.4,14.1,30.12,SSW,207,3.0,8.0,29,0.00,,,0.00,Wunderground v.1.15,2013-02-02 21:09:00,
2013-02-02 16:10:00,44.4,14.1,30.12,SSE,150,2.0,8.0,29,0.00,,,0.00,Wunderground v.1.15,2013-02-02 21:10:00,
2013-02-02 16:12:00,44.4,14.1,30.12,SE,134,2.0,6.0,29,0.00,,,0.00,Wunderground v.1.15,2013-02-02 21:12:00,
2013-02-02 16:14:00,44.3,14.0,30.12,SSW,210,4.0,6.0,29,0.00,,,0.00,Wunderground v.1.15,2013-02-02 21:14:00,
2013-02-02 16:15:00,44.3,14.0,30.12,SSW,207,5.0,6.0,29,0.00,,,0.00,Wunderground v.1.15,2013-02-02 21:15:00,
2013-02-02 16:17:00,44.3,14.0,30.12,SSW,193,2.0,7.0,29,0.00,,,0.00,Wunderground v.1.15,2013-02-02 21:17:00,
2013-02-02 16:19:00,44.3,14.0,30.11,SSW,210,4.0,7.0,29,0.00,,,0.00,Wunderground v.1.15,2013-02-02 21:19:00,
2013-02-02 16:20:00,44.3,14.0,30.11,South,187,2.0,7.0,29,0.00,,,0.00,Wunderground v.1.15,2013-02-02 21:20:00,
2013-02-02 16:23:00,44.2,13.9,30.11,SW,218,4.0,5.0,29,0.00,,,0.00,Wunderground v.1.15,2013-02-02 21:23:00,
2013-02-02 16:25:00,44.1,13.8,30.11,SSW,198,2.0,10.0,29,0.00,,,0.00,Wunderground v.1.15,2013-02-02 21:25:00,
2013-02-02 16:28:00,44.1,13.8,30.11,SSW,193,2.0,10.0,29,0.00,,,0.00,Wunderground v.1.15,2013-02-02 21:28:00,
2013-02-02 16:30:00,44.0,13.7,30.11,SSW,197,3.0,5.0,29,0.00,,,0.00,Wunderground v.1.15,2013-02-02 21:30:00,
2013-02-02 16:33:00,44.0,13.7,30.11,SSW,208,2.0,5.0,29,0.00,,,0.00,Wunderground v.1.15,2013-02-02 21:33:00,
2013-02-02 16:35:00,44.0,13.7,30.11,SSW,203,3.0,5.0,29,0.00,,,0.00,Wunderground v.1.15,2013-02-02 21:35:00,
2013-02-02 16:38:00,43.9,13.6,30.10,SW,226,4.0,7.0,29,0.00,,,0.00,Wunderground v.1.15,2013-02-02 21:38:00,
2013-02-02 16:40:00,43.9,13.6,30.10,SSW,203,2.0,4.0,29,0.00,,,0.00,Wunderground v.1.15,2013-02-02 21:40:00,
2013-02-02 16:43:00,43.9,13.6,30.11,SSW,212,3.0,6.0,29,0.00,,,0.00,Wunderground v.1.15,2013-02-02 21:43:00,
2013-02-02 16:45:00,43.8,13.6,30.11,SSW,203,3.0,6.0,29,0.00,,,0.00,Wunderground v.1.15,2013-02-02 21:45:00,
2013-02-02 16:48:00,43.8,14.3,30.11,SSW,211,4.0,6.0,30,0.00,,,0.00,Wunderground v.1.15,2013-02-02 21:48:00,
2013-02-02 16:50:00,43.8,14.3,30.10,SSW,192,4.0,6.0,30,0.00,,,0.00,Wunderground v.1.15,2013-02-02 21:50:00,
2013-02-02 16:51:00,43.8,14.3,30.10,South,184,5.0,7.0,30,0.00,,,0.00,Wunderground v.1.15,2013-02-02 21:51:00,
2013-02-02 16:54:00,43.8,14.3,30.11,SSW,210,2.0,7.0,30,0.00,,,0.00,Wunderground v.1.15,2013-02-02 21:54:00,
2013-02-02 16:55:00,43.8,14.3,30.11,SSW,207,2.0,7.0,30,0.00,,,0.00,Wunderground v.1.15,2013-02-02 21:55:00,
2013-02-02 16:56:00,43.9,14.4,30.11,SW,218,3.0,7.0,30,0.00,,,0.00,Wunderground v.1.15,2013-02-02 21:56:00,
2013-02-02 16:59:00,43.9,15.2,30.10,SSW,203,1.0,7.0,31,0.00,,,0.00,Wunderground v.1.15,2013-02-02 21:59:00,
2013-02-02 17:01:00,44.0,14.5,30.10,SSW,212,1.0,2.0,30,0.00,,,0.00,Wunderground v.1.15,2013-02-02 22:01:00,
2013-02-02 17:04:00,44.0,14.5,30.10,SSW,211,1.0,2.0,30,0.00,,,0.00,Wunderground v.1.15,2013-02-02 22:04:00,
2013-02-02 17:06:00,44.0,15.3,30.10,SSW,198,1.0,2.0,31,0.00,,,0.00,Wunderground v.1.15,2013-02-02 22:06:00,
2013-02-02 17:09:00,43.9,14.4,30.10,SSW,212,4.0,5.0,30,0.00,,,0.00,Wunderground v.1.15,2013-02-02 22:09:00,
2013-02-02 17:11:00,43.8,14.3,30.10,SSW,196,2.0,4.0,30,0.00,,,0.00,Wunderground v.1.15,2013-02-02 22:11:00,
2013-02-02 17:12:00,43.8,14.3,30.10,SSW,200,0.0,4.0,30,0.00,,,0.00,Wunderground v.1.15,2013-02-02 22:12:00,
2013-02-02 17:14:00,43.7,15.0,30.10,SSW,200,0.0,4.0,31,0.00,,,0.00,Wunderground v.1.15,2013-02-02 22:14:00,
2013-02-02 17:16:00,43.7,15.0,30.10,SSE,153,1.0,4.0,31,0.00,,,0.00,Wunderground v.1.15,2013-02-02 22:16:00,
2013-02-02 17:17:00,43.6,14.9,30.09,South,186,0.0,4.0,31,0.00,,,0.00,Wunderground v.1.15,2013-02-02 22:17:00,
2013-02-02 17:20:00,43.5,14.8,30.09,South,181,2.0,4.0,31,0.00,,,0.00,Wunderground v.1.15,2013-02-02 22:20:00,
2013-02-02 17:21:00,43.5,14.8,30.09,SW,214,1.0,4.0,31,0.00,,,0.00,Wunderground v.1.15,2013-02-02 22:21:00,
2013-02-02 17:22:00,43.5,14.8,30.09,South,187,1.0,4.0,31,0.00,,,0.00,Wunderground v.1.15,2013-02-02 22:22:00,
2013-02-02 17:25:00,43.5,14.8,30.09,SW,218,1.0,4.0,31,0.00,,,0.00,Wunderground v.1.15,2013-02-02 22:25:00,
2013-02-02 17:26:00,43.4,15.5,30.09,SSW,205,1.0,4.0,32,0.00,,,0.00,Wunderground v.1.15,2013-02-02 22:26:00,
2013-02-02 17:28:00,43.4,15.5,30.09,SSW,204,1.0,4.0,32,0.00,,,0.00,Wunderground v.1.15,2013-02-02 22:28:00,
2013-02-02 17:30:00,43.3,15.4,30.09,SW,217,2.0,2.0,32,0.00,,,0.00,Wunderground v.1.15,2013-02-02 22:30:00,
2013-02-02 17:31:00,43.3,16.1,30.09,SSW,210,0.0,2.0,33,0.00,,,0.00,Wunderground v.1.15,2013-02-02 22:31:00,
2013-02-02 17:33:00,43.3,15.4,30.09,South,187,2.0,2.0,32,0.00,,,0.00,Wunderground v.1.15,2013-02-02 22:33:00,
2013-02-02 17:35:00,43.3,15.4,30.09,SSW,205,1.0,2.0,32,0.00,,,0.00,Wunderground v.1.15,2013-02-02 22:35:00,
2013-02-02 17:36:00,43.3,15.4,30.09,SSW,210,1.0,2.0,32,0.00,,,0.00,Wunderground v.1.15,2013-02-02 22:36:00,
2013-02-02 17:37:00,43.2,15.3,30.09,SSW,209,0.0,2.0,32,0.00,,,0.00,Wunderground v.1.15,2013-02-02 22:37:00,
2013-02-02 17:38:00,43.2,15.3,30.09,SSW,209,0.0,2.0,32,0.00,,,0.00,Wunderground v.1.15,2013-02-02 22:38:00,
2013-02-02 17:40:00,43.2,16.0,30.09,SSW,210,0.0,1.0,33,0.00,,,0.00,Wunderground v.1.15,2013-02-02 22:40:00,
2013-02-02 17:41:00,43.2,16.0,30.09,SSW,209,0.0,1.0,33,0.00,,,0.00,Wunderground v.1.15,2013-02-02 22:41:00,
2013-02-02 17:42:00,43.2,16.0,30.09,SSW,210,0.0,1.0,33,0.00,,,0.00,Wunderground v.1.15,2013-02-02 22:42:00,
2013-02-02 17:43:00,43.1,15.9,30.09,SSW,210,0.0,1.0,33,0.00,,,0.00,Wunderground v.1.15,2013-02-02 22:43:00,
2013-02-02 17:45:00,43.1,15.2,30.08,SSW,195,0.0,1.0,32,0.00,,,0.00,Wunderground v.1.15,2013-02-02 22:45:00,
2013-02-02 17:46:00,43.1,15.9,30.08,SSW,195,0.0,1.0,33,0.00,,,0.00,Wunderground v.1.15,2013-02-02 22:46:00,
2013-02-02 17:47:00,43.0,15.8,30.08,SSW,195,0.0,1.0,33,0.00,,,0.00,Wunderground v.1.15,2013-02-02 22:47:00,
2013-02-02 17:48:00,43.0,15.8,30.08,SSW,195,0.0,1.0,33,0.00,,,0.00,Wunderground v.1.15,2013-02-02 22:48:00,
2013-02-02 17:51:00,42.9,15.7,30.08,SSW,195,0.0,0.0,33,0.00,,,0.00,Wunderground v.1.15,2013-02-02 22:51:00,
2013-02-02 17:52:00,42.9,15.7,30.08,SSW,195,0.0,0.0,33,0.00,,,0.00,Wunderground v.1.15,2013-02-02 22:52:00,
2013-02-02 17:53:00,42.9,15.7,30.08,SSE,152,1.0,1.0,33,0.00,,,0.00,Wunderground v.1.15,2013-02-02 22:53:00,
2013-02-02 17:56:00,42.8,15.6,30.08,SSE,153,0.0,1.0,33,0.00,,,0.00,Wunderground v.1.15,2013-02-02 22:56:00,
2013-02-02 17:57:00,42.8,16.3,30.08,SSE,153,0.0,1.0,34,0.00,,,0.00,Wunderground v.1.15,2013-02-02 22:57:00,
2013-02-02 17:58:00,42.8,16.3,30.08,SSE,153,0.0,1.0,34,0.00,,,0.00,Wunderground v.1.15,2013-02-02 22:58:00,
2013-02-02 18:01:00,42.8,16.3,30.08,SSE,153,0.0,1.0,34,0.00,,,0.00,Wunderground v.1.15,2013-02-02 23:01:00,
2013-02-02 18:02:00,42.8,16.3,30.08,SSE,153,0.0,1.0,34,0.00,,,0.00,Wunderground v.1.15,2013-02-02 23:02:00,
2013-02-02 18:03:00,42.8,16.3,30.08,SSE,153,0.0,1.0,34,0.00,,,0.00,Wunderground v.1.15,2013-02-02 23:03:00,
2013-02-02 18:06:00,42.7,16.2,30.07,SSE,153,0.0,1.0,34,0.00,,,0.00,Wunderground v.1.15,2013-02-02 23:06:00,
2013-02-02 18:07:00,42.7,16.2,30.07,SSE,152,0.0,1.0,34,0.00,,,0.00,Wunderground v.1.15,2013-02-02 23:07:00,
2013-02-02 18:09:00,42.7,16.2,30.07,SSE,152,0.0,1.0,34,0.00,,,0.00,Wunderground v.1.15,2013-02-02 23:09:00,
2013-02-02 18:11:00,42.7,16.9,30.07,SSE,152,0.0,0.0,35,0.00,,,0.00,Wunderground v.1.15,2013-02-02 23:11:00,
2013-02-02 18:12:00,42.7,16.9,30.07,SSE,153,0.0,0.0,35,0.00,,,0.00,Wunderground v.1.15,2013-02-02 23:12:00,
2013-02-02 18:14:00,42.7,16.9,30.07,SSE,153,0.0,0.0,35,0.00,,,0.00,Wunderground v.1.15,2013-02-02 23:14:00,
2013-02-02 18:16:00,42.7,17.6,30.07,SSE,152,0.0,0.0,36,0.00,,,0.00,Wunderground v.1.15,2013-02-02 23:16:00,
2013-02-02 18:17:00,42.7,17.6,30.07,SSE,152,0.0,0.0,36,0.00,,,0.00,Wunderground v.1.15,2013-02-02 23:17:00,
2013-02-02 18:19:00,42.6,16.8,30.08,SSE,152,0.0,1.0,35,0.00,,,0.00,Wunderground v.1.15,2013-02-02 23:19:00,
2013-02-02 18:21:00,42.6,16.8,30.07,ESE,102,2.0,2.0,35,0.00,,,0.00,Wunderground v.1.15,2013-02-02 23:21:00,
2013-02-02 18:22:00,42.6,16.8,30.07,East,101,1.0,2.0,35,0.00,,,0.00,Wunderground v.1.15,2013-02-02 23:22:00,
2013-02-02 18:24:00,42.6,17.5,30.07,SSW,203,2.0,2.0,36,0.00,,,0.00,Wunderground v.1.15,2013-02-02 23:24:00,
2013-02-02 18:27:00,42.5,16.7,30.07,SSW,203,0.0,3.0,35,0.00,,,0.00,Wunderground v.1.15,2013-02-02 23:27:00,
2013-02-02 18:28:00,42.6,16.8,30.07,SE,131,1.0,3.0,35,0.00,,,0.00,Wunderground v.1.15,2013-02-02 23:28:00,
2013-02-02 18:29:00,42.6,16.8,30.07,East,90,0.0,3.0,35,0.00,,,0.00,Wunderground v.1.15,2013-02-02 23:29:00,
2013-02-02 18:32:00,42.5,17.4,30.07,SSE,153,1.0,1.0,36,0.00,,,0.00,Wunderground v.1.15,2013-02-02 23:32:00,
2013-02-02 18:33:00,42.5,16.7,30.08,SSE,153,0.0,1.0,35,0.00,,,0.00,Wunderground v.1.15,2013-02-02 23:33:00,
2013-02-02 18:34:00,42.5,16.7,30.08,SSE,153,0.0,1.0,35,0.00,,,0.00,Wunderground v.1.15,2013-02-02 23:34:00,
2013-02-02 18:37:00,42.5,16.7,30.07,SE,124,0.0,2.0,35,0.00,,,0.00,Wunderground v.1.15,2013-02-02 23:37:00,
2013-02-02 18:38:00,42.5,16.7,30.07,SE,124,0.0,2.0,35,0.00,,,0.00,Wunderground v.1.15,2013-02-02 23:38:00,
2013-02-02 18:39:00,42.5,16.7,30.07,SSE,153,0.0,2.0,35,0.00,,,0.00,Wunderground v.1.15,2013-02-02 23:39:00,
2013-02-02 18:42:00,42.5,17.4,30.07,SSE,153,0.0,0.0,36,0.00,,,0.00,Wunderground v.1.15,2013-02-02 23:42:00,
2013-02-02 18:43:00,42.5,17.4,30.06,SSE,153,0.0,0.0,36,0.00,,,0.00,Wunderground v.1.15,2013-02-02 23:43:00,
2013-02-02 18:44:00,42.4,17.3,30.06,SSE,153,0.0,0.0,36,0.00,,,0.00,Wunderground v.1.15,2013-02-02 23:44:00,
2013-02-02 18:45:00,42.4,17.3,30.06,SE,145,1.0,1.0,36,0.00,,,0.00,Wunderground v.1.15,2013-02-02 23:45:00,
2013-02-02 18:47:00,42.4,17.3,30.06,SSE,162,1.0,1.0,36,0.00,,,0.00,Wunderground v.1.15,2013-02-02 23:47:00,
2013-02-02 18:48:00,42.4,17.3,30.06,SSE,162,0.0,1.0,36,0.00,,,0.00,Wunderground v.1.15,2013-02-02 23:48:00,
2013-02-02 18:49:00,42.4,17.3,30.06,SSE,162,0.0,1.0,36,0.00,,,0.00,Wunderground v.1.15,2013-02-02 23:49:00,
2013-02-02 18:50:00,42.4,17.3,30.06,SSE,162,1.0,1.0,36,0.00,,,0.00,Wunderground v.1.15,2013-02-02 23:50:00,
2013-02-02 18:52:00,42.4,17.3,30.06,SSE,163,1.0,1.0,36,0.00,,,0.00,Wunderground v.1.15,2013-02-02 23:52:00,
2013-02-02 18:54:00,42.3,16.6,30.06,South,187,0.0,1.0,35,0.00,,,0.00,Wunderground v.1.15,2013-02-02 23:54:00,
2013-02-02 18:55:00,42.3,16.6,30.06,SSE,163,1.0,1.0,35,0.00,,,0.00,Wunderground v.1.15,2013-02-02 23:55:00,
2013-02-02 18:57:00,42.3,16.6,30.06,SE,130,1.0,2.0,35,0.00,,,0.00,Wunderground v.1.15,2013-02-02 23:57:00,
2013-02-02 18:59:00,42.3,16.6,30.06,SE,130,0.0,2.0,35,0.00,,,0.00,Wunderground v.1.15,2013-02-02 23:59:00,
2013-02-02 19:00:00,42.3,17.2,30.06,SE,131,0.0,0.0,36,0.00,,,0.00,Wunderground v.1.15,2013-02-03 00:00:00,
2013-02-02 19:01:00,42.3,16.6,30.06,SE,130,0.0,0.0,35,0.00,,,0.00,Wunderground v.1.15,2013-02-03 00:01:00,
2013-02-02 19:02:00,42.3,16.6,30.05,SE,131,1.0,1.0,35,0.00,,,0.00,Wunderground v.1.15,2013-02-03 00:02:00,
2013-02-02 19:04:00,42.3,16.6,30.05,SE,134,0.0,2.0,35,0.00,,,0.00,Wunderground v.1.15,2013-02-03 00:04:00,
2013-02-02 19:05:00,42.3,16.6,30.05,SE,134,1.0,2.0,35,0.00,,,0.00,Wunderground v.1.15,2013-02-03 00:05:00,
2013-02-02 19:06:00,42.3,16.6,30.05,SSE,149,1.0,2.0,35,0.00,,,0.00,Wunderground v.1.15,2013-02-03 00:06:00,
2013-02-02 19:07:00,42.3,16.6,30.06,SSE,162,0.0,2.0,35,0.00,,,0.00,Wunderground v.1.15,2013-02-03 00:07:00,
2013-02-02 19:09:00,42.3,16.6,30.05,SE,140,1.0,2.0,35,0.00,,,0.00,Wunderground v.1.15,2013-02-03 00:09:00,
2013-02-02 19:10:00,42.3,16.6,30.05,SE,140,0.0,0.0,35,0.00,,,0.00,Wunderground v.1.15,2013-02-03 00:10:00,
2013-02-02 19:11:00,42.3,16.6,30.05,SE,139,1.0,1.0,35,0.00,,,0.00,Wunderground v.1.15,2013-02-03 00:11:00,
2013-02-02 19:12:00,42.3,16.6,30.05,SE,132,1.0,2.0,35,0.00,,,0.00,Wunderground v.1.15,2013-02-03 00:12:00,
2013-02-02 19:14:00,42.3,16.6,30.05,SE,136,1.0,2.0,35,0.00,,,0.00,Wunderground v.1.15,2013-02-03 00:14:00,
2013-02-02 19:15:00,42.3,16.6,30.05,SE,136,1.0,2.0,35,0.00,,,0.00,Wunderground v.1.15,2013-02-03 00:15:00,
2013-02-02 19:16:00,42.3,16.6,30.05,SE,136,1.0,2.0,35,0.00,,,0.00,Wunderground v.1.15,2013-02-03 00:16:00,
2013-02-02 19:17:00,42.3,16.6,30.05,SE,136,0.0,2.0,35,0.00,,,0.00,Wunderground v.1.15,2013-02-03 00:17:00,
2013-02-02 19:19:00,42.3,17.2,30.05,SSW,203,1.0,2.0,36,0.00,,,0.00,Wunderground v.1.15,2013-02-03 00:19:00,
2013-02-02 19:21:00,42.3,16.6,30.05,SE,139,0.0,1.0,35,0.00,,,0.00,Wunderground v.1.15,2013-02-03 00:21:00,
2013-02-02 19:22:00,42.3,16.6,30.05,SE,139,1.0,1.0,35,0.00,,,0.00,Wunderground v.1.15,2013-02-03 00:22:00,
2013-02-02 19:24:00,42.3,16.6,30.05,SE,131,0.0,2.0,35,0.00,,,0.00,Wunderground v.1.15,2013-02-03 00:24:00,
2013-02-02 19:26:00,42.3,17.2,30.05,SE,131,0.0,2.0,36,0.00,,,0.00,Wunderground v.1.15,2013-02-03 00:26:00,
2013-02-02 19:27:00,42.3,17.2,30.05,SE,142,1.0,2.0,36,0.00,,,0.00,Wunderground v.1.15,2013-02-03 00:27:00,
2013-02-02 19:29:00,42.2,16.5,30.05,SE,142,1.0,2.0,35,0.00,,,0.00,Wunderground v.1.15,2013-02-03 00:29:00,
2013-02-02 19:31:00,42.2,16.5,30.05,SE,142,0.0,0.0,35,0.00,,,0.00,Wunderground v.1.15,2013-02-03 00:31:00,
2013-02-02 19:32:00,42.2,16.5,30.05,SE,141,0.0,0.0,35,0.00,,,0.00,Wunderground v.1.15,2013-02-03 00:32:00,
2013-02-02 19:34:00,42.2,17.1,30.05,SE,142,0.0,0.0,36,0.00,,,0.00,Wunderground v.1.15,2013-02-03 00:34:00,
2013-02-02 19:37:00,42.2,16.5,30.05,SE,142,0.0,0.0,35,0.00,,,0.00,Wunderground v.1.15,2013-02-03 00:37:00,
2013-02-02 19:38:00,42.2,17.1,30.05,SE,142,0.0,1.0,36,0.00,,,0.00,Wunderground v.1.15,2013-02-03 00:38:00,
2013-02-02 19:40:00,42.2,16.5,30.05,SE,142,0.0,1.0,35,0.00,,,0.00,Wunderground v.1.15,2013-02-03 00:40:00,
2013-02-02 19:42:00,42.2,16.5,30.05,SE,142,0.0,1.0,35,0.00,,,0.00,Wunderground v.1.15,2013-02-03 00:42:00,
2013-02-02 19:43:00,42.2,16.5,30.04,SSE,165,1.0,1.0,35,0.00,,,0.00,Wunderground v.1.15,2013-02-03 00:43:00,
2013-02-02 19:44:00,42.1,17.0,30.04,SSE,165,0.0,1.0,36,0.00,,,0.00,Wunderground v.1.15,2013-02-03 00:44:00,
2013-02-02 19:47:00,42.1,17.0,30.04,SSE,165,0.0,1.0,36,0.00,,,0.00,Wunderground v.1.15,2013-02-03 00:47:00,
2013-02-02 19:48:00,42.1,17.0,30.04,SSE,165,0.0,1.0,36,0.00,,,0.00,Wunderground v.1.15,2013-02-03 00:48:00,
2013-02-02 19:50:00,42.1,17.0,30.04,SSE,150,1.0,1.0,36,0.00,,,0.00,Wunderground v.1.15,2013-02-03 00:50:00,
2013-02-02 19:52:00,42.1,17.0,30.04,SSE,151,0.0,1.0,36,0.00,,,0.00,Wunderground v.1.15,2013-02-03 00:52:00,
2013-02-02 19:53:00,42.1,17.0,30.04,SSE,151,0.0,1.0,36,0.00,,,0.00,Wunderground v.1.15,2013-02-03 00:53:00,
2013-02-02 19:55:00,42.1,17.0,30.03,SSE,150,0.0,1.0,36,0.00,,,0.00,Wunderground v.1.15,2013-02-03 00:55:00,
2013-02-02 19:57:00,42.1,17.0,30.03,SSE,150,1.0,1.0,36,0.00,,,0.00,Wunderground v.1.15,2013-02-03 00:57:00,
2013-02-02 19:58:00,42.1,17.7,30.03,SE,124,1.0,1.0,37,0.00,,,0.00,Wunderground v.1.15,2013-02-03 00:58:00,
2013-02-02 20:01:00,42.1,17.7,30.03,ESE,108,1.0,1.0,37,0.00,,,0.00,Wunderground v.1.15,2013-02-03 01:01:00,
2013-02-02 20:02:00,42.1,17.7,30.03,South,181,0.0,1.0,37,0.00,,,0.00,Wunderground v.1.15,2013-02-03 01:02:00,
2013-02-02 20:03:00,42.1,17.7,30.03,South,181,0.0,1.0,37,0.00,,,0.00,Wunderground v.1.15,2013-02-03 01:03:00,
2013-02-02 20:06:00,42.1,17.7,30.03,South,181,1.0,1.0,37,0.00,,,0.00,Wunderground v.1.15,2013-02-03 01:06:00,
2013-02-02 20:07:00,42.1,17.7,30.03,South,179,0.0,1.0,37,0.00,,,0.00,Wunderground v.1.15,2013-02-03 01:07:00,
2013-02-02 20:08:00,42.1,17.7,30.03,South,179,1.0,1.0,37,0.00,,,0.00,Wunderground v.1.15,2013-02-03 01:08:00,
2013-02-02 20:11:00,42.1,17.7,30.03,South,180,0.0,1.0,37,0.00,,,0.00,Wunderground v.1.15,2013-02-03 01:11:00,
2013-02-02 20:12:00,42.0,17.6,30.03,South,174,1.0,1.0,37,0.00,,,0.00,Wunderground v.1.15,2013-02-03 01:12:00,
2013-02-02 20:13:00,42.0,18.2,30.03,SSW,198,0.0,1.0,38,0.00,,,0.00,Wunderground v.1.15,2013-02-03 01:13:00,
2013-02-02 20:16:00,42.0,17.6,30.03,SSW,198,0.0,1.0,37,0.00,,,0.00,Wunderground v.1.15,2013-02-03 01:16:00,
2013-02-02 20:17:00,42.0,17.6,30.03,SSW,198,0.0,1.0,37,0.00,,,0.00,Wunderground v.1.15,2013-02-03 01:17:00,
2013-02-02 20:18:00,42.0,17.6,30.03,SSW,198,0.0,1.0,37,0.00,,,0.00,Wunderground v.1.15,2013-02-03 01:18:00,
2013-02-02 20:21:00,42.0,18.2,30.04,SSW,198,1.0,1.0,38,0.00,,,0.00,Wunderground v.1.15,2013-02-03 01:21:00,
2013-02-02 20:22:00,42.0,17.6,30.04,SSW,198,1.0,1.0,37,0.00,,,0.00,Wunderground v.1.15,2013-02-03 01:22:00,
2013-02-02 20:23:00,42.0,17.6,30.04,SSW,198,0.0,1.0,37,0.00,,,0.00,Wunderground v.1.15,2013-02-03 01:23:00,
2013-02-02 20:26:00,42.0,18.2,30.04,SSW,198,1.0,1.0,38,0.00,,,0.00,Wunderground v.1.15,2013-02-03 01:26:00,
2013-02-02 20:28:00,42.0,17.6,30.03,SSW,192,0.0,1.0,37,0.00,,,0.00,Wunderground v.1.15,2013-02-03 01:28:00,
2013-02-02 20:32:00,42.1,18.3,30.04,SSW,195,1.0,1.0,38,0.00,,,0.00,Wunderground v.1.15,2013-02-03 01:32:00,
2013-02-02 20:33:00,42.1,18.3,30.04,SSW,192,1.0,2.0,38,0.00,,,0.00,Wunderground v.1.15,2013-02-03 01:33:00,
2013-02-02 20:34:00,42.1,18.3,30.04,SSW,204,2.0,2.0,38,0.00,,,0.00,Wunderground v.1.15,2013-02-03 01:34:00,
2013-02-02 20:37:00,42.1,18.3,30.03,SSE,150,0.0,2.0,38,0.00,,,0.00,Wunderground v.1.15,2013-02-03 01:37:00,
2013-02-02 20:38:00,42.1,18.3,30.03,SSE,151,0.0,2.0,38,0.00,,,0.00,Wunderground v.1.15,2013-02-03 01:38:00,
2013-02-02 20:39:00,42.1,18.3,30.03,SSE,153,1.0,2.0,38,0.00,,,0.00,Wunderground v.1.15,2013-02-03 01:39:00,
2013-02-02 20:42:00,42.2,18.4,30.03,SE,136,2.0,2.0,38,0.00,,,0.00,Wunderground v.1.15,2013-02-03 01:42:00,
2013-02-02 20:43:00,42.2,18.4,30.03,SSE,159,1.0,2.0,38,0.00,,,0.00,Wunderground v.1.15,2013-02-03 01:43:00,
2013-02-02 20:44:00,42.2,18.4,30.03,ESE,122,1.0,2.0,38,0.00,,,0.00,Wunderground v.1.15,2013-02-03 01:44:00,
2013-02-02 20:47:00,42.3,18.5,30.03,SSW,193,2.0,2.0,38,0.00,,,0.00,Wunderground v.1.15,2013-02-03 01:47:00,
2013-02-02 20:48:00,42.4,18.6,30.03,South,190,1.0,4.0,38,0.00,,,0.00,Wunderground v.1.15,2013-02-03 01:48:00,
2013-02-02 20:50:00,42.4,19.2,30.03,South,190,1.0,4.0,39,0.00,,,0.00,Wunderground v.1.15,2013-02-03 01:50:00,
2013-02-02 20:52:00,42.5,18.6,30.03,South,191,1.0,3.0,38,0.00,,,0.00,Wunderground v.1.15,2013-02-03 01:52:00,
2013-02-02 20:53:00,42.5,19.3,30.03,SSW,205,2.0,3.0,39,0.00,,,0.00,Wunderground v.1.15,2013-02-03 01:53:00,
2013-02-02 20:55:00,42.6,18.7,30.03,SSW,198,2.0,5.0,38,0.00,,,0.00,Wunderground v.1.15,2013-02-03 01:55:00,
2013-02-02 20:57:00,42.7,19.4,30.03,SSW,207,3.0,5.0,39,0.00,,,0.00,Wunderground v.1.15,2013-02-03 01:57:00,
2013-02-02 20:58:00,42.7,19.4,30.03,SSW,197,2.0,5.0,39,0.00,,,0.00,Wunderground v.1.15,2013-02-03 01:58:00,
2013-02-02 21:00:00,42.7,19.4,30.03,South,188,0.0,1.0,39,0.00,,,0.00,Wunderground v.1.15,2013-02-03 02:00:00,
2013-02-02 21:02:00,42.8,19.5,30.03,SSW,210,1.0,3.0,39,0.00,,,0.00,Wunderground v.1.15,2013-02-03 02:02:00,
2013-02-02 21:03:00,42.7,19.4,30.03,SW,217,2.0,3.0,39,0.00,,,0.00,Wunderground v.1.15,2013-02-03 02:03:00,
2013-02-02 21:05:00,42.8,19.5,30.03,SSW,207,1.0,3.0,39,0.00,,,0.00,Wunderground v.1.15,2013-02-03 02:05:00,
2013-02-02 21:07:00,42.8,19.5,30.03,SW,218,3.0,3.0,39,0.00,,,0.00,Wunderground v.1.15,2013-02-03 02:07:00,
2013-02-02 21:08:00,42.8,19.5,30.03,SSW,207,1.0,3.0,39,0.00,,,0.00,Wunderground v.1.15,2013-02-03 02:08:00,
2013-02-02 21:10:00,42.9,19.6,30.03,SSW,205,1.0,1.0,39,0.00,,,0.00,Wunderground v.1.15,2013-02-03 02:10:00,
2013-02-02 21:12:00,42.9,20.2,30.03,SSW,208,2.0,3.0,40,0.00,,,0.00,Wunderground v.1.15,2013-02-03 02:12:00,
2013-02-02 21:13:00,42.9,20.2,30.03,SSW,203,1.0,3.0,40,0.00,,,0.00,Wunderground v.1.15,2013-02-03 02:13:00,
2013-02-02 21:15:00,42.9,20.2,30.03,SW,214,3.0,4.0,40,0.00,,,0.00,Wunderground v.1.15,2013-02-03 02:15:00,
2013-02-02 21:17:00,42.9,20.2,30.03,SE,143,1.0,4.0,40,0.00,,,0.00,Wunderground v.1.15,2013-02-03 02:17:00,
2013-02-02 21:18:00,42.8,20.7,30.03,SSW,196,1.0,4.0,41,0.00,,,0.00,Wunderground v.1.15,2013-02-03 02:18:00,
2013-02-02 21:20:00,42.9,20.2,30.03,South,190,2.0,3.0,40,0.00,,,0.00,Wunderground v.1.15,2013-02-03 02:20:00,
2013-02-02 21:22:00,42.9,20.8,30.03,SW,215,3.0,4.0,41,0.00,,,0.00,Wunderground v.1.15,2013-02-03 02:22:00,
2013-02-02 21:23:00,42.9,20.8,30.03,SSW,203,2.0,4.0,41,0.00,,,0.00,Wunderground v.1.15,2013-02-03 02:23:00,
2013-02-02 21:25:00,43.0,20.9,30.03,SSW,208,2.0,4.0,41,0.00,,,0.00,Wunderground v.1.15,2013-02-03 02:25:00,
2013-02-02 21:27:00,43.1,21.0,30.02,SSW,200,3.0,4.0,41,0.00,,,0.00,Wunderground v.1.15,2013-02-03 02:27:00,
2013-02-02 21:29:00,43.1,21.5,30.02,SSW,205,2.0,4.0,42,0.00,,,0.00,Wunderground v.1.15,2013-02-03 02:29:00,
2013-02-02 21:30:00,43.2,21.6,30.02,SSW,211,6.0,6.0,42,0.00,,,0.00,Wunderground v.1.15,2013-02-03 02:30:00,
2013-02-02 21:32:00,43.5,23.0,30.03,SW,219,2.0,7.0,44,0.00,,,0.00,Wunderground v.1.15,2013-02-03 02:32:00,
2013-02-02 21:34:00,43.6,23.1,30.03,SSE,152,2.0,7.0,44,0.00,,,0.00,Wunderground v.1.15,2013-02-03 02:34:00,
2013-02-02 21:35:00,43.7,23.2,30.02,East,90,3.0,7.0,44,0.00,,,0.00,Wunderground v.1.15,2013-02-03 02:35:00,
2013-02-02 21:37:00,44.0,25.0,30.02,South,177,4.0,12.0,47,0.00,,,0.00,Wunderground v.1.15,2013-02-03 02:37:00,
2013-02-02 21:39:00,44.1,25.1,30.02,SSW,193,2.0,12.0,47,0.00,,,0.00,Wunderground v.1.15,2013-02-03 02:39:00,
2013-02-02 21:40:00,44.3,25.3,30.02,SE,141,5.0,5.0,47,0.00,,,0.00,Wunderground v.1.15,2013-02-03 02:40:00,
2013-02-02 21:43:00,44.5,26.0,30.02,SSW,199,3.0,7.0,48,0.00,,,0.00,Wunderground v.1.15,2013-02-03 02:43:00,
2013-02-02 21:44:00,44.7,26.2,30.03,SW,224,3.0,8.0,48,0.00,,,0.00,Wunderground v.1.15,2013-02-03 02:44:00,
2013-02-02 21:45:00,44.7,26.2,30.03,SSW,195,1.0,8.0,48,0.00,,,0.00,Wunderground v.1.15,2013-02-03 02:45:00,
2013-02-02 21:48:00,44.8,26.8,30.03,SSW,195,3.0,10.0,49,0.00,,,0.00,Wunderground v.1.15,2013-02-03 02:48:00,
2013-02-02 21:49:00,44.9,26.9,30.03,SSW,197,4.0,10.0,49,0.00,,,0.00,Wunderground v.1.15,2013-02-03 02:49:00,
2013-02-02 21:50:00,44.9,26.9,30.03,South,179,3.0,6.0,49,0.00,,,0.00,Wunderground v.1.15,2013-02-03 02:50:00,
2013-02-02 21:53:00,44.9,27.4,30.02,SSW,202,3.0,6.0,50,0.00,,,0.00,Wunderground v.1.15,2013-02-03 02:53:00,
2013-02-02 21:54:00,44.9,27.8,30.03,SSW,198,4.0,6.0,51,0.00,,,0.00,Wunderground v.1.15,2013-02-03 02:54:00,
2013-02-02 21:55:00,44.9,27.8,30.02,ESE,108,2.0,6.0,51,0.00,,,0.00,Wunderground v.1.15,2013-02-03 02:55:00,
2013-02-02 21:58:00,44.8,28.2,30.02,SSE,150,1.0,6.0,52,0.00,,,0.00,Wunderground v.1.15,2013-02-03 02:58:00,
2013-02-02 21:59:00,44.8,28.7,30.02,SW,224,2.0,6.0,53,0.00,,,0.00,Wunderground v.1.15,2013-02-03 02:59:00,
2013-02-02 22:00:00,44.8,28.7,30.02,SSW,210,2.0,3.0,53,0.00,,,0.00,Wunderground v.1.15,2013-02-03 03:00:00,
2013-02-02 22:01:00,44.8,29.2,30.02,SSW,207,3.0,3.0,54,0.00,,,0.00,Wunderground v.1.15,2013-02-03 03:01:00,
2013-02-02 22:03:00,44.7,29.5,30.02,SW,215,2.0,5.0,55,0.00,,,0.00,Wunderground v.1.15,2013-02-03 03:03:00,
2013-02-02 22:04:00,44.7,29.5,30.02,SSW,198,2.0,5.0,55,0.00,,,0.00,Wunderground v.1.15,2013-02-03 03:04:00,
2013-02-02 22:05:00,44.7,29.5,30.02,SSW,205,2.0,5.0,55,0.00,,,0.00,Wunderground v.1.15,2013-02-03 03:05:00,
2013-02-02 22:06:00,44.6,29.9,30.02,SSW,200,2.0,5.0,56,0.00,,,0.00,Wunderground v.1.15,2013-02-03 03:06:00,
2013-02-02 22:08:00,44.5,29.8,30.02,SW,220,2.0,5.0,56,0.00,,,0.00,Wunderground v.1.15,2013-02-03 03:08:00,
2013-02-02 22:10:00,44.5,30.2,30.02,SSW,211,2.0,5.0,57,0.00,,,0.00,Wunderground v.1.15,2013-02-03 03:10:00,
2013-02-02 22:11:00,44.5,30.2,30.02,SSW,196,2.0,3.0,57,0.00,,,0.00,Wunderground v.1.15,2013-02-03 03:11:00,
2013-02-02 22:13:00,44.4,30.1,30.02,SW,233,3.0,3.0,57,0.00,,,0.00,Wunderground v.1.15,2013-02-03 03:13:00,
2013-02-02 22:15:00,44.3,30.4,30.02,SSE,163,2.0,3.0,58,0.00,,,0.00,Wunderground v.1.15,2013-02-03 03:15:00,
2013-02-02 22:16:00,44.3,30.9,30.02,South,191,2.0,4.0,59,0.00,,,0.00,Wunderground v.1.15,2013-02-03 03:16:00,
2013-02-02 22:18:00,44.3,30.9,30.02,South,187,3.0,5.0,59,0.00,,,0.00,Wunderground v.1.15,2013-02-03 03:18:00,
2013-02-02 22:20:00,44.3,31.3,30.02,South,173,2.0,5.0,60,0.00,,,0.00,Wunderground v.1.15,2013-02-03 03:20:00,
2013-02-02 22:21:00,44.3,31.3,30.02,SSE,167,3.0,8.0,60,0.00,,,0.00,Wunderground v.1.15,2013-02-03 03:21:00,
2013-02-02 22:23:00,44.3,31.7,30.02,SW,227,1.0,8.0,61,0.00,,,0.00,Wunderground v.1.15,2013-02-03 03:23:00,
2013-02-02 22:25:00,44.3,31.7,30.02,SSW,195,3.0,8.0,61,0.00,,,0.00,Wunderground v.1.15,2013-02-03 03:25:00,
2013-02-02 22:26:00,44.3,31.7,30.02,South,188,3.0,8.0,61,0.00,,,0.00,Wunderground v.1.15,2013-02-03 03:26:00,
2013-02-02 22:27:00,44.3,31.7,30.02,SSE,151,1.0,8.0,61,0.00,,,0.00,Wunderground v.1.15,2013-02-03 03:27:00,
2013-02-02 22:28:00,44.3,31.7,30.02,SSE,165,2.0,8.0,61,0.00,,,0.00,Wunderground v.1.15,2013-02-03 03:28:00,
2013-02-02 22:30:00,44.3,32.1,30.02,SW,227,8.0,8.0,62,0.00,,,0.00,Wunderground v.1.15,2013-02-03 03:30:00,
2013-02-02 22:31:00,44.4,32.2,30.02,SSW,200,4.0,8.0,62,0.00,,,0.00,Wunderground v.1.15,2013-02-03 03:31:00,
2013-02-02 22:32:00,44.4,32.2,30.02,SSW,192,4.0,8.0,62,0.00,,,0.00,Wunderground v.1.15,2013-02-03 03:32:00,
2013-02-02 22:34:00,44.4,32.6,30.02,SSE,163,4.0,13.0,63,0.00,,,0.00,Wunderground v.1.15,2013-02-03 03:34:00,
2013-02-02 22:35:00,44.4,32.6,30.02,South,187,3.0,13.0,63,0.00,,,0.00,Wunderground v.1.15,2013-02-03 03:35:00,
2013-02-02 22:36:00,44.5,32.7,30.02,South,169,2.0,13.0,63,0.00,,,0.00,Wunderground v.1.15,2013-02-03 03:36:00,
2013-02-02 22:37:00,44.5,33.1,30.02,South,190,2.0,13.0,64,0.00,,,0.00,Wunderground v.1.15,2013-02-03 03:37:00,
2013-02-02 22:39:00,44.4,33.0,30.02,South,181,3.0,13.0,64,0.00,,,0.00,Wunderground v.1.15,2013-02-03 03:39:00,
2013-02-02 22:41:00,44.4,33.0,30.02,SSW,197,4.0,9.0,64,0.00,,,0.00,Wunderground v.1.15,2013-02-03 03:41:00,
2013-02-02 22:42:00,44.4,33.4,30.02,SSW,203,3.0,9.0,65,0.00,,,0.00,Wunderground v.1.15,2013-02-03 03:42:00,
2013-02-02 22:44:00,44.3,33.3,30.02,SSW,192,2.0,12.0,65,0.00,,,0.00,Wunderground v.1.15,2013-02-03 03:44:00,
2013-02-02 22:46:00,44.3,33.7,30.02,SSW,211,3.0,12.0,66,0.00,,,0.00,Wunderground v.1.15,2013-02-03 03:46:00,
2013-02-02 22:47:00,44.2,33.9,30.02,SSW,195,3.0,12.0,67,0.00,,,0.00,Wunderground v.1.15,2013-02-03 03:47:00,
2013-02-02 22:49:00,44.1,34.2,30.02,SSW,203,3.0,12.0,68,0.00,,,0.00,Wunderground v.1.15,2013-02-03 03:49:00,
2013-02-02 22:51:00,44.0,34.5,30.02,SSW,200,2.0,4.0,69,0.00,,,0.00,Wunderground v.1.15,2013-02-03 03:51:00,
2013-02-02 22:52:00,44.0,34.5,30.02,SSW,212,2.0,6.0,69,0.00,,,0.00,Wunderground v.1.15,2013-02-03 03:52:00,
2013-02-02 22:54:00,43.8,34.6,30.02,WNW,287,2.0,8.0,70,0.00,,,0.00,Wunderground v.1.15,2013-02-03 03:54:00,
2013-02-02 22:56:00,43.7,34.9,30.02,SSW,194,2.0,8.0,71,0.00,,,0.00,Wunderground v.1.15,2013-02-03 03:56:00,
2013-02-02 22:57:00,43.6,34.8,30.02,South,175,2.0,8.0,71,0.00,,,0.00,Wunderground v.1.15,2013-02-03 03:57:00,
2013-02-02 22:58:00,43.6,35.2,30.02,SW,231,3.0,8.0,72,0.00,,,0.00,Wunderground v.1.15,2013-02-03 03:58:00,
2013-02-02 22:59:00,43.5,35.4,30.02,SSW,205,4.0,8.0,73,0.00,,,0.00,Wunderground v.1.15,2013-02-03 03:59:00,
2013-02-02 23:02:00,43.3,35.2,30.02,South,186,1.0,7.0,73,0.00,,,0.00,Wunderground v.1.15,2013-02-03 04:02:00,
2013-02-02 23:03:00,43.2,35.1,30.02,SW,236,4.0,7.0,73,0.00,,,0.00,Wunderground v.1.15,2013-02-03 04:03:00,
2013-02-02 23:04:00,43.2,35.5,30.02,South,189,4.0,7.0,74,0.00,,,0.00,Wunderground v.1.15,2013-02-03 04:04:00,
2013-02-02 23:07:00,43.0,35.3,30.02,SW,220,3.0,7.0,74,0.00,,,0.00,Wunderground v.1.15,2013-02-03 04:07:00,
2013-02-02 23:08:00,43.0,35.6,30.02,SSW,207,3.0,7.0,75,0.00,,,0.00,Wunderground v.1.15,2013-02-03 04:08:00,
2013-02-02 23:09:00,42.9,35.5,30.02,SSW,198,3.0,7.0,75,0.00,,,0.00,Wunderground v.1.15,2013-02-03 04:09:00,
2013-02-02 23:12:00,42.9,35.9,30.02,SSW,209,4.0,6.0,76,0.00,,,0.00,Wunderground v.1.15,2013-02-03 04:12:00,
2013-02-02 23:13:00,42.8,35.8,30.02,SSW,200,3.0,9.0,76,0.00,,,0.00,Wunderground v.1.15,2013-02-03 04:13:00,
2013-02-02 23:14:00,42.7,35.7,30.02,South,187,3.0,9.0,76,0.00,,,0.00,Wunderground v.1.15,2013-02-03 04:14:00,
2013-02-02 23:17:00,42.7,36.0,30.02,SSW,209,4.0,9.0,77,0.00,,,0.00,Wunderground v.1.15,2013-02-03 04:17:00,
2013-02-02 23:18:00,42.6,35.9,30.02,SSW,193,1.0,9.0,77,0.00,,,0.00,Wunderground v.1.15,2013-02-03 04:18:00,
2013-02-02 23:20:00,42.6,35.9,30.02,SE,145,5.0,5.0,77,0.00,,,0.00,Wunderground v.1.15,2013-02-03 04:20:00,
2013-02-02 23:22:00,42.6,35.9,30.02,SSE,159,2.0,5.0,77,0.00,,,0.00,Wunderground v.1.15,2013-02-03 04:22:00,
2013-02-02 23:24:00,42.5,36.1,30.02,South,170,4.0,7.0,78,0.00,,,0.00,Wunderground v.1.15,2013-02-03 04:24:00,
2013-02-02 23:25:00,42.5,36.1,30.02,South,173,1.0,7.0,78,0.00,,,0.00,Wunderground v.1.15,2013-02-03 04:25:00,
2013-02-02 23:27:00,42.4,36.3,30.02,South,187,4.0,7.0,79,0.00,,,0.00,Wunderground v.1.15,2013-02-03 04:27:00,
2013-02-02 23:29:00,42.4,36.3,30.02,SSW,201,1.0,7.0,79,0.00,,,0.00,Wunderground v.1.15,2013-02-03 04:29:00,
2013-02-02 23:30:00,42.3,36.3,30.02,SSW,203,1.0,2.0,79,0.00,,,0.00,Wunderground v.1.15,2013-02-03 04:30:00,
2013-02-02 23:32:00,42.3,36.6,30.02,SW,229,2.0,3.0,80,0.00,,,0.00,Wunderground v.1.15,2013-02-03 04:32:00,
2013-02-02 23:33:00,42.2,36.5,30.02,SSW,195,3.0,4.0,80,0.00,,,0.00,Wunderground v.1.15,2013-02-03 04:33:00,
2013-02-02 23:34:00,42.2,36.5,30.01,SW,224,2.0,4.0,80,0.00,,,0.00,Wunderground v.1.15,2013-02-03 04:34:00,
2013-02-02 23:35:00,42.2,36.5,30.01,SE,141,1.0,4.0,80,0.00,,,0.00,Wunderground v.1.15,2013-02-03 04:35:00,
2013-02-02 23:37:00,42.1,36.4,30.01,SSW,209,2.0,4.0,80,0.00,,,0.00,Wunderground v.1.15,2013-02-03 04:37:00,
2013-02-02 23:38:00,42.0,36.6,30.01,SSW,210,3.0,4.0,81,0.00,,,0.00,Wunderground v.1.15,2013-02-03 04:38:00,
2013-02-02 23:39:00,42.0,36.6,30.01,SSW,195,1.0,4.0,81,0.00,,,0.00,Wunderground v.1.15,2013-02-03 04:39:00,
2013-02-02 23:40:00,42.0,36.6,30.01,SW,214,2.0,3.0,81,0.00,,,0.00,Wunderground v.1.15,2013-02-03 04:40:00,
2013-02-02 23:42:00,41.9,36.8,30.01,SSW,205,4.0,6.0,82,0.00,,,0.00,Wunderground v.1.15,2013-02-03 04:42:00,
2013-02-02 23:43:00,41.9,36.8,30.01,South,190,2.0,6.0,82,0.00,,,0.00,Wunderground v.1.15,2013-02-03 04:43:00,
2013-02-02 23:44:00,41.9,36.5,30.01,SSW,203,0.0,6.0,81,0.00,,,0.00,Wunderground v.1.15,2013-02-03 04:44:00,
2013-02-02 23:45:00,41.9,36.8,30.01,SW,214,1.0,6.0,82,0.00,,,0.00,Wunderground v.1.15,2013-02-03 04:45:00,
2013-02-02 23:47:00,41.8,36.7,30.01,WSW,248,1.0,6.0,82,0.00,,,0.00,Wunderground v.1.15,2013-02-03 04:47:00,
2013-02-02 23:48:00,41.8,36.7,30.01,SSE,149,0.0,6.0,82,0.00,,,0.00,Wunderground v.1.15,2013-02-03 04:48:00,
2013-02-02 23:49:00,41.8,36.7,30.01,SSW,195,1.0,6.0,82,0.00,,,0.00,Wunderground v.1.15,2013-02-03 04:49:00,
2013-02-02 23:50:00,41.8,36.7,30.01,SSW,193,3.0,4.0,82,0.00,,,0.00,Wunderground v.1.15,2013-02-03 04:50:00,
2013-02-02 23:52:00,41.8,36.7,30.00,SSW,211,2.0,6.0,82,0.00,,,0.00,Wunderground v.1.15,2013-02-03 04:52:00,
2013-02-02 23:54:00,41.8,36.7,30.00,SSE,150,3.0,6.0,82,0.00,,,0.00,Wunderground v.1.15,2013-02-03 04:54:00,
2013-02-02 23:56:00,41.8,36.7,30.00,SSE,165,2.0,6.0,82,0.00,,,0.00,Wunderground v.1.15,2013-02-03 04:56:00,
2013-02-02 23:57:00,41.8,36.7,30.00,SSW,212,1.0,6.0,82,0.00,,,0.00,Wunderground v.1.15,2013-02-03 04:57:00,
2013-02-02 23:59:00,41.8,36.7,30.00,SE,141,1.0,10.0,82,0.00,,,0.00,Wunderground v.1.15,2013-02-03 04:59:00,